GEFSGL_500_meanwind_024.txt.gz
Wind_Speed
37 40 42 45 47 49 51 53 55 56 57 58 60 62 63 63 64 65 64 63 63 64 65 65 66 66 65 65 67 68 71 73 73 72 73 71 68 63 58 55 52 50 48
39 42 45 47 49 51 53 55 56 58 60 62 64 65 64 63 64 66 64 63 63 62 62 63 61 61 62 64 67 69 71 73 73 69 63 58 53 50 47 43 40 38 37
42 45 48 50 53 54 56 58 60 62 64 65 65 64 63 63 63 62 62 61 60 59 58 57 58 60 62 65 67 69 69 68 64 59 52 48 44 42 38 35 32 32 31
46 49 51 54 56 57 59 62 63 64 65 64 62 61 61 61 62 62 60 58 56 55 55 57 59 61 63 65 65 64 61 57 53 48 42 38 36 34 31 29 28 29 29
50 52 54 56 58 60 61 62 62 62 61 60 60 60 60 60 59 57 55 54 53 54 56 58 59 61 62 62 59 54 50 45 41 37 32 29 27 26 25 24 24 24 24
52 53 55 56 57 58 59 60 59 59 59 59 58 58 57 55 53 52 52 52 53 54 55 57 58 58 56 52 47 44 40 35 31 27 23 21 19 19 19 19 18 18 19
52 52 53 53 53 54 56 56 57 56 56 55 54 54 51 50 49 50 51 52 53 54 54 54 52 49 45 40 37 33 30 26 22 18 15 14 14 14 14 14 15 15 15
50 49 49 50 50 51 52 52 52 52 52 51 50 49 48 48 48 49 50 51 51 51 49 46 42 38 35 30 26 23 20 17 14 11 10 10 11 11 12 12 12 12 12
46 45 45 46 46 47 48 49 49 50 49 47 47 46 47 47 47 47 47 47 46 44 40 37 33 30 26 21 17 14 12 11 9 9 9 9 10 10 11 12 12 12 12
41 41 41 42 44 45 46 46 45 45 44 44 45 45 45 45 44 42 41 40 38 35 32 30 27 23 18 14 11 10 9 8 8 8 9 9 11 12 13 14 14 14 14
37 38 39 40 42 42 42 43 43 43 43 43 43 42 41 39 37 36 34 32 29 27 25 23 20 15 11 9 8 8 8 8 9 9 10 12 14 14 15 15 15 14 12
37 38 39 39 39 39 39 39 40 41 41 40 38 36 34 32 30 29 28 26 23 21 18 15 11 8 7 6 7 7 8 9 10 11 13 14 15 15 15 15 13 12 10
35 36 36 36 37 37 38 38 38 37 36 34 31 29 27 26 25 24 24 22 18 14 10 7 6 6 6 7 7 8 8 10 11 12 14 15 15 15 15 14 12 11 11
32 33 34 35 36 36 36 35 34 32 30 28 26 24 23 23 22 22 21 17 12 7 5 5 6 7 7 7 7 8 9 10 12 13 15 16 16 15 15 14 13 13 13
31 32 33 34 34 33 31 30 28 27 25 24 23 22 21 21 20 18 16 12 7 5 6 7 7 8 8 8 9 9 10 11 12 14 15 16 16 16 16 15 15 14 14
31 31 31 30 29 27 26 25 25 23 22 22 21 20 18 17 15 13 9 4 3 7 8 8 8 9 10 10 10 10 11 12 13 14 15 16 17 17 17 16 16 16 15
29 28 27 25 24 23 23 22 21 20 19 18 17 16 14 12 10 6 2 4 8 10 9 9 10 10 10 10 11 11 12 13 14 15 16 17 18 18 18 17 16 16 15
25 24 23 22 21 20 20 19 18 17 16 14 13 11 10 7 4 1 5 9 11 10 10 10 11 11 11 11 11 12 12 13 14 15 16 17 18 19 19 19 18 17 16
21 20 19 19 18 18 17 16 15 14 12 10 8 6 5 3 4 7 11 12 12 10 10 10 10 10 11 11 11 12 13 14 14 15 15 16 18 20 21 21 20 19 18
19 18 17 17 16 15 14 13 12 10 8 6 6 5 5 7 9 12 14 13 12 11 10 10 10 10 11 11 12 13 14 14 15 15 15 16 18 20 21 22 22 22 22
17 16 16 15 15 14 13 12 10 9 8 7 8 9 10 12 13 15 14 13 11 10 10 10 10 10 11 11 12 13 14 15 15 16 16 16 17 19 20 21 22 23 24
17 16 16 15 14 14 13 11 10 10 10 11 11 12 14 15 15 14 13 11 10 9 9 10 10 10 11 12 12 13 14 15 16 16 16 17 17 18 19 19 20 21 23
19 18 16 16 15 14 14 13 13 13 13 13 14 15 15 15 14 13 11 10 9 8 9 10 10 10 11 12 12 13 15 16 17 17 17 17 17 18 19 19 19 20 21
22 20 19 17 16 16 15 15 15 15 14 15 15 15 15 14 13 11 10 9 9 9 9 10 10 10 11 12 13 14 15 15 16 17 17 17 18 18 19 20 20 21 22
25 23 21 20 18 17 16 16 15 15 15 15 15 14 14 13 12 11 10 9 9 9 9 10 11 11 12 12 14 15 15 16 16 16 17 17 18 19 19 20 21 21 21
28 27 26 24 22 20 18 17 15 15 14 14 13 13 13 12 11 10 10 10 10 10 10 11 11 12 13 13 14 15 16 15 15 15 15 16 17 17 18 18 18 19 19

GEFSGL_500_meanwind_030.txt.gz
Wind_Speed
46 46 46 45 45 45 44 45 46 48 50 52 55 57 60 62 64 65 66 67 67 67 65 64 62 61 61 61 62 63 64 65 65 65 67 70 72 72 71 68 65 61 58
48 48 48 48 47 47 47 48 49 51 53 55 57 59 62 63 65 65 65 65 64 63 61 60 60 60 61 62 63 64 65 66 67 66 65 65 64 61 57 54 50 47 44
49 49 50 49 49 50 50 51 52 53 55 57 59 60 62 63 63 63 63 62 60 60 59 59 59 60 61 62 63 64 65 65 65 63 58 54 50 46 43 40 38 36 33
51 52 52 52 52 52 52 53 54 55 56 58 59 60 61 61 61 61 60 59 59 59 58 59 59 60 61 62 62 63 62 59 56 50 44 39 36 34 32 30 28 27 26
53 53 53 53 52 52 53 54 55 56 57 58 58 59 59 59 58 58 57 57 58 57 58 59 60 60 60 60 59 57 53 48 42 36 32 30 29 27 25 24 22 23 24
55 53 52 51 51 52 52 53 54 55 55 55 55 56 56 56 56 55 56 57 57 57 57 58 58 57 56 54 51 47 42 36 30 26 24 24 23 22 21 21 20 21 22
52 51 51 50 50 50 51 52 52 52 53 53 53 53 53 53 54 55 55 55 55 55 54 54 53 51 48 43 39 35 31 26 22 20 20 19 19 19 20 20 21 21 21
50 50 49 49 49 49 49 49 49 50 49 50 50 50 51 52 52 52 52 53 53 52 50 48 45 41 37 32 27 25 22 20 19 18 18 18 19 20 21 21 21 21 21
48 48 47 47 47 46 46 47 47 47 47 48 49 49 50 50 50 49 49 49 47 45 43 40 36 31 26 21 19 17 16 16 16 17 18 19 21 22 22 22 21 20 19
46 46 45 45 44 44 45 45 45 46 46 47 47 47 47 47 47 46 43 41 39 37 35 32 27 21 16 14 13 12 13 14 15 17 20 21 22 22 21 20 18 17 16
44 43 42 42 42 42 43 43 44 44 45 45 45 45 44 43 41 38 35 33 31 29 28 24 19 14 11 10 10 10 12 13 16 18 20 20 20 19 18 16 15 15 15
40 40 40 40 40 41 41 42 42 43 43 42 42 40 39 36 33 31 29 27 25 23 20 15 11 9 8 8 9 11 12 15 17 19 19 19 18 17 16 16 15 15 16
36 37 38 38 39 39 39 40 40 40 39 38 36 34 32 30 28 27 25 22 19 15 11 7 6 6 7 8 9 11 13 15 17 18 18 17 17 16 16 16 16 16 17
34 35 35 36 37 37 38 37 37 35 33 31 30 28 26 25 24 22 19 14 9 6 3 3 5 6 7 8 9 11 13 15 17 17 17 17 17 17 17 17 17 18 18
31 33 34 35 35 35 34 32 31 29 27 26 25 23 22 21 19 15 11 6 2 1 3 5 6 6 7 8 10 12 14 16 17 18 18 19 19 18 18 18 18 19 20
31 31 31 31 31 30 29 27 26 24 23 22 21 19 17 15 12 8 3 1 4 5 5 6 6 7 7 8 10 12 14 15 17 18 20 21 21 20 19 19 19 20 21
28 28 27 27 26 25 24 23 21 20 19 17 15 13 11 7 4 1 4 7 8 7 7 7 7 7 8 9 10 12 13 15 17 19 20 22 23 23 22 21 21 21 22
24 24 23 22 22 21 19 18 16 15 13 12 10 8 5 3 5 7 10 10 9 8 8 8 8 8 9 10 11 12 13 15 17 19 21 22 24 24 24 24 23 23 23
21 20 19 19 18 17 15 14 12 10 9 7 6 6 7 9 11 12 12 11 10 9 9 8 9 9 10 11 12 13 14 15 16 18 20 22 24 25 25 25 24 24 24
18 17 17 16 15 14 12 10 9 8 7 8 8 10 11 13 14 13 12 11 10 10 9 9 9 9 10 11 12 13 14 15 16 17 19 21 22 24 25 26 26 26 26
17 16 15 14 13 12 11 11 10 9 10 11 12 13 15 15 14 13 12 11 11 10 9 9 10 10 11 12 13 14 15 16 17 17 18 20 22 23 25 26 26 26 27
18 16 14 13 13 12 12 12 13 13 14 15 15 16 15 14 13 12 11 11 11 10 10 10 10 10 11 12 13 14 15 17 18 18 19 20 21 23 25 26 26 26 27
19 17 16 14 14 14 14 14 15 15 16 16 16 15 14 13 12 11 10 10 10 10 10 10 10 11 11 12 14 15 16 17 18 19 19 20 21 22 24 25 25 26 26
22 20 18 16 15 15 16 16 16 16 16 16 15 15 13 12 11 11 11 10 10 10 10 10 10 11 11 12 14 15 16 17 18 19 19 20 20 21 22 23 23 24 24
24 23 21 19 17 16 16 16 16 16 15 15 14 13 13 12 12 11 11 11 11 10 10 10 10 11 11 12 14 15 16 17 17 17 18 18 19 20 20 21 21 22 22
27 25 23 21 19 17 16 15 15 14 14 14 13 13 12 12 12 12 12 11 11 11 11 11 11 12 12 13 13 14 15 15 16 16 16 17 17 18 18 19 19 20 20

GEFSGL_500_meanwind_036.txt.gz
Wind_Speed
37 38 39 40 41 42 44 45 46 46 47 47 48 48 48 49 50 52 53 54 56 57 58 59 60 60 61 61 61 61 62 62 62 62 64 65 65 65 64 62 60 57 54
40 41 42 43 44 46 47 49 50 50 50 49 49 50 50 51 52 53 54 55 57 57 58 58 58 59 58 59 59 60 61 62 62 62 62 61 60 58 54 51 48 45 42
44 44 45 46 48 49 50 51 52 51 51 50 50 51 51 52 53 54 55 56 56 56 56 56 56 56 57 57 58 59 60 61 60 59 56 53 50 47 43 40 38 36 34
47 48 48 49 50 51 52 53 53 53 52 52 52 52 52 53 53 54 54 54 55 55 54 54 54 54 55 57 57 58 58 57 54 51 46 42 40 38 35 33 32 31 31
48 49 49 50 51 52 53 53 53 54 54 53 53 53 53 53 53 53 53 53 53 53 52 52 53 54 55 55 55 54 53 49 44 40 36 34 33 31 31 30 30 29 30
46 47 49 51 52 53 53 53 53 54 53 53 53 53 53 53 52 52 52 52 51 51 51 52 52 52 52 52 50 48 44 39 34 31 30 29 29 29 29 29 30 29 29
46 47 49 51 52 53 53 53 53 52 52 52 52 52 52 52 52 51 51 50 50 49 49 50 50 49 48 45 42 39 34 30 27 26 26 27 27 27 28 28 28 28 27
47 49 50 50 51 51 51 51 51 51 51 51 51 51 51 50 50 50 49 48 48 48 47 46 44 42 39 36 33 29 27 25 25 25 26 26 27 27 26 26 24 23 22
48 48 49 49 49 49 49 49 49 49 49 49 49 49 49 48 48 47 47 47 45 44 42 40 37 33 30 26 23 22 21 22 23 24 25 25 25 24 23 22 20 19 19
46 47 47 48 48 48 47 47 47 47 47 47 47 47 47 46 45 45 44 42 40 38 36 33 28 24 21 18 17 17 19 20 22 23 23 23 22 21 20 18 17 17 18
45 45 45 45 45 45 45 44 44 45 45 45 44 44 43 42 41 39 37 35 33 31 28 25 21 16 13 12 14 15 17 19 20 20 20 20 20 19 18 17 17 17 17
42 42 42 41 41 41 41 41 41 41 41 41 40 39 38 36 34 32 29 27 25 23 21 17 13 10 9 11 13 14 16 17 17 18 19 18 18 18 17 17 17 17 17
38 38 38 38 38 38 38 38 39 38 38 37 36 34 32 29 27 24 22 20 18 16 13 9 7 7 8 10 11 13 14 15 16 17 18 18 17 16 16 17 16 17 17
34 35 35 36 36 36 35 35 34 33 32 30 29 27 26 24 21 19 16 14 11 8 5 4 3 5 6 8 9 11 12 14 16 17 18 17 17 16 16 17 17 17 18
32 33 33 33 32 31 31 30 29 28 26 24 23 21 19 17 14 12 10 7 4 2 1 0 2 4 5 7 9 11 13 15 17 18 18 18 18 18 17 18 18 19 19
29 28 28 27 27 27 26 25 23 21 19 17 16 14 13 11 8 6 3 1 2 3 3 3 4 5 6 8 10 11 13 16 18 19 19 20 20 19 19 20 20 21 21
24 24 23 23 22 21 20 18 16 14 12 11 10 8 6 4 2 1 4 5 6 6 5 5 6 7 8 9 10 12 14 16 18 19 20 21 21 22 22 22 22 22 23
20 19 19 18 18 16 14 12 10 8 6 5 4 4 3 4 6 8 9 9 8 7 7 7 8 8 9 10 11 12 14 17 19 20 21 22 23 23 24 24 24 24 24
17 17 15 15 13 11 9 8 6 6 5 6 6 7 8 10 11 11 11 10 9 9 9 9 10 10 11 11 12 13 15 17 19 21 22 23 24 24 25 25 25 25 25
15 14 12 11 10 9 8 7 7 7 8 9 10 11 12 12 12 12 11 10 10 10 10 11 11 11 12 12 13 14 16 18 20 21 22 23 24 25 25 25 25 25 25
14 12 11 10 9 9 9 9 10 11 12 12 13 13 13 13 13 12 11 11 11 11 11 11 12 12 12 13 14 15 17 18 20 21 22 23 24 25 26 26 26 25 25
14 12 11 10 10 10 11 11 12 13 13 13 14 14 13 13 13 12 11 11 11 12 12 12 12 13 13 14 15 16 17 18 19 21 22 23 24 25 25 25 25 25 25
14 13 11 11 11 11 11 12 12 13 13 13 13 12 12 12 11 11 11 11 11 11 12 12 12 13 13 14 14 16 17 18 19 20 21 22 23 24 24 24 25 25 24
14 13 12 11 11 11 11 11 12 12 12 12 11 11 11 11 11 10 10 10 10 11 11 12 12 12 13 13 14 14 15 16 17 18 19 20 21 22 22 22 23 23 23
14 13 11 11 10 10 10 10 10 10 10 10 10 10 10 10 10 10 10 10 10 10 11 11 12 12 12 12 13 13 14 15 16 17 18 18 19 20 20 21 21 21 21
15 13 11 10 10 9 9 9 9 9 9 10 10 10 10 10 10 10 10 10 11 11 11 11 11 11 11 12 12 12 13 14 15 15 16 17 18 18 19 19 20 20 20

GEFSGL_500_meanwind_042.txt.gz
Wind_Speed
39 41 42 43 44 46 46 48 49 50 51 51 52 53 52 52 52 52 52 51 52 53 54 56 57 58 59 61 62 63 64 64 64 64 65 66 66 67 67 66 64 61 59
41 42 44 45 46 48 49 50 51 52 53 54 55 55 55 55 55 54 54 54 55 55 56 56 57 57 58 59 60 61 62 62 62 61 62 63 62 61 60 59 56 54 50
44 45 47 48 49 50 51 51 53 54 55 56 56 57 57 56 56 56 56 56 56 56 56 56 56 57 57 58 58 58 59 59 59 59 58 57 56 55 53 50 47 45 43
48 49 50 51 52 52 52 53 55 56 56 57 57 57 57 57 57 57 57 57 56 56 55 55 55 55 55 55 55 55 55 55 55 54 53 51 49 47 45 42 40 40 39
51 52 52 53 53 53 54 54 55 56 56 57 57 57 57 57 57 58 57 56 56 55 55 54 54 53 52 52 52 52 52 51 50 48 46 42 40 39 39 38 38 37 36
50 51 51 51 51 52 53 54 55 55 55 55 55 55 56 56 56 56 56 55 55 54 53 52 51 50 49 48 48 48 47 46 44 40 36 35 34 35 35 35 34 33 32
47 47 47 48 50 50 50 51 52 53 53 54 54 54 54 55 55 55 55 54 53 51 50 48 47 46 45 44 43 42 41 39 34 31 30 31 32 33 33 32 31 30 30
42 44 45 45 46 48 49 50 51 52 52 52 52 52 52 53 53 52 51 50 48 47 45 44 42 41 39 38 37 36 34 30 28 27 29 30 31 31 30 29 28 27 26
42 44 45 46 47 47 48 48 49 49 50 50 50 50 49 49 49 48 46 45 43 42 40 38 36 35 34 32 30 28 25 24 25 26 28 28 28 28 27 26 26 25 24
43 43 44 45 45 46 46 47 47 47 47 47 47 47 46 45 44 43 42 40 39 37 35 32 30 28 27 25 22 20 19 20 22 24 25 26 26 26 25 25 24 24 24
41 42 43 43 43 43 43 43 43 43 43 43 43 43 42 41 40 39 37 35 33 31 28 25 23 21 19 17 15 14 15 17 19 21 22 23 23 24 24 24 25 25 25
39 40 40 40 39 39 39 39 39 39 39 39 38 38 37 35 34 32 31 29 26 23 20 18 15 13 11 10 10 11 13 14 16 18 19 21 22 23 23 23 24 24 24
36 36 36 36 36 36 36 36 36 35 35 34 33 32 30 28 26 25 22 20 17 14 12 9 8 6 5 5 6 8 10 13 15 17 18 20 20 21 21 22 23 23 24
32 33 33 32 33 33 32 32 32 31 30 28 27 25 23 21 19 17 14 11 9 7 6 4 2 1 2 3 5 7 10 12 14 16 17 18 19 20 21 22 22 23 24
30 30 30 30 29 29 28 27 26 25 23 22 21 19 18 16 13 11 8 6 4 3 1 1 1 2 3 4 6 8 11 13 14 15 17 17 18 19 20 21 22 23 24
28 27 27 26 25 24 22 21 20 19 18 18 16 15 12 10 7 4 3 1 2 3 4 4 4 4 5 6 8 10 11 13 14 15 16 17 18 19 20 21 22 23 24
25 23 22 22 20 19 17 16 15 15 15 14 13 11 9 7 5 4 4 5 6 6 6 7 6 7 8 9 10 11 12 14 15 16 17 17 18 19 20 21 22 23 23
20 18 17 16 16 15 14 13 12 12 12 11 11 11 10 8 7 8 8 8 8 9 9 8 9 10 10 11 12 13 14 15 15 16 17 18 19 19 20 21 22 22 23
17 15 14 13 13 13 13 12 11 11 11 11 11 11 11 11 10 10 10 10 10 10 10 10 11 11 12 12 13 13 14 15 15 17 18 19 19 20 20 21 21 22 22
14 13 13 12 12 12 12 12 12 12 12 12 12 12 12 12 12 12 11 11 11 11 11 12 12 12 12 13 13 13 13 14 15 17 18 19 19 20 20 20 21 21 22
12 12 12 12 11 11 12 12 12 12 12 13 13 13 13 13 12 12 12 12 12 12 12 12 12 12 12 12 12 12 13 14 15 16 17 18 19 19 20 20 21 21 21
11 11 11 10 10 11 11 12 12 12 12 13 13 13 12 12 12 12 12 12 12 12 12 12 12 11 12 12 12 12 12 13 14 16 17 18 19 19 20 20 21 21 21
10 9 10 10 10 10 11 11 11 11 12 12 12 12 11 11 11 11 11 11 11 11 11 11 11 11 11 11 11 11 12 13 14 15 17 18 18 19 20 20 21 21 21
9 9 8 8 9 9 10 10 10 10 11 11 11 11 10 10 10 10 10 10 11 11 10 10 10 11 10 10 11 11 12 12 14 15 17 17 17 18 20 20 21 21 21
9 9 8 8 8 8 9 9 9 9 10 10 10 10 10 10 9 9 9 9 10 10 10 10 10 10 10 10 11 11 12 13 14 15 16 17 17 18 19 20 21 21 21
10 10 9 8 8 8 8 8 8 9 9 10 10 10 10 9 9 9 9 9 9 9 9 9 9 9 10 10 11 12 13 14 15 16 17 17 18 19 19 20 21 21 22

GEFSGL_500_meanwind_048.txt.gz
Wind_Speed
43 43 43 43 44 44 46 47 48 48 49 50 51 53 54 55 56 57 57 57 58 59 60 60 60 60 60 60 60 61 62 63 63 63 64 64 64 64 64 64 64 63 62
43 43 44 45 46 47 49 50 51 52 54 56 57 58 59 59 60 60 61 61 61 62 62 61 61 61 60 61 61 62 62 63 62 61 61 61 62 62 61 60 60 59 58
45 45 47 48 49 50 52 54 56 57 59 60 61 62 62 62 63 63 63 63 62 62 62 61 61 60 61 61 61 61 61 60 60 58 58 58 58 57 56 55 55 53 51
47 49 50 51 53 54 56 57 58 60 61 62 63 62 63 64 63 62 61 61 60 59 59 59 59 59 59 60 59 59 58 58 56 55 54 53 52 52 51 48 45 44 43
48 50 52 53 55 56 57 58 58 59 59 58 58 57 57 58 58 58 58 58 58 57 58 58 58 58 58 58 57 56 54 53 52 50 49 47 47 46 43 40 38 37 38
44 47 48 50 51 51 52 53 53 53 53 53 53 53 54 54 55 55 55 55 55 56 56 56 57 57 56 54 52 51 49 48 46 44 42 41 39 36 34 34 34 33 32
42 44 44 43 43 45 46 47 47 48 49 50 50 51 52 52 52 53 53 54 54 54 54 53 52 51 49 48 46 45 44 41 39 37 35 32 30 29 29 30 30 31 31
40 41 42 42 43 44 44 44 45 46 47 48 49 50 50 51 52 51 51 51 50 49 48 47 46 44 43 41 40 38 37 35 33 30 27 25 24 25 26 26 26 27 28
37 38 39 41 42 43 43 44 45 45 46 46 47 47 47 47 47 47 46 45 45 44 43 41 40 38 36 34 32 30 29 27 25 23 21 20 20 21 22 23 24 25 26
35 36 37 38 39 40 41 41 42 42 43 43 43 43 43 42 42 42 41 40 39 38 36 33 32 30 28 26 24 22 21 20 18 17 17 17 18 20 21 22 23 23 24
32 33 34 35 36 37 37 37 38 39 39 39 38 38 37 37 37 35 34 32 30 28 26 24 23 21 19 18 17 15 14 13 13 13 14 15 17 18 19 20 21 22 23
29 30 31 32 33 34 34 34 35 35 35 33 33 32 32 31 30 28 26 24 22 20 18 16 14 13 11 11 9 8 8 9 9 10 12 13 15 17 18 19 20 22 22
26 27 28 29 30 30 30 31 31 31 29 28 27 27 26 25 23 22 20 18 16 13 10 8 7 6 6 5 4 5 6 7 8 9 11 13 14 16 17 19 20 21 22
25 25 26 27 27 27 26 26 26 25 23 23 22 22 21 20 19 17 15 12 9 6 4 3 2 2 2 3 4 5 5 6 8 9 11 13 15 16 18 19 21 22 22
22 22 23 23 22 22 22 21 20 20 20 19 19 19 17 15 13 10 7 5 2 1 2 3 4 5 6 6 6 6 7 8 9 11 12 14 16 17 19 20 20 21 22
18 18 19 19 18 17 17 17 17 17 17 16 16 15 13 11 8 6 4 3 4 5 6 7 8 8 8 8 8 9 9 10 11 12 14 15 17 18 19 21 21 22 23
15 15 16 16 15 15 15 15 15 15 15 14 13 12 11 10 8 7 7 7 8 9 10 10 10 10 10 10 10 10 10 11 12 13 15 16 18 19 20 21 22 22 22
13 13 13 14 14 13 13 14 14 14 13 13 12 12 11 11 10 9 9 10 11 11 11 11 11 11 10 10 11 11 11 12 14 15 16 17 19 20 21 22 23 23 23
12 11 12 12 13 12 12 13 13 12 12 12 12 12 11 11 11 11 11 11 11 11 11 11 11 10 10 10 11 11 12 14 15 16 17 18 19 21 22 23 24 24 24
10 10 10 11 11 11 11 12 12 12 12 12 12 12 11 11 11 11 11 11 11 11 11 11 10 10 10 10 11 12 13 14 15 17 17 19 20 21 23 23 24 24 24
9 9 9 9 10 10 11 11 11 11 11 11 11 11 11 11 11 11 11 11 11 11 10 10 10 10 10 10 11 12 13 15 16 17 18 19 20 22 23 24 25 25 24
8 8 8 8 9 9 10 10 11 11 11 11 11 11 10 10 11 11 11 11 10 10 10 10 10 10 10 10 11 12 13 14 16 17 18 19 20 21 22 24 25 25 25
7 7 7 7 7 8 9 9 10 10 10 10 10 10 9 10 10 10 10 10 10 10 9 9 9 9 10 10 11 12 13 15 16 17 18 19 20 21 22 23 24 24 25
8 7 6 6 6 7 8 8 8 9 9 9 9 9 9 9 9 9 9 9 9 9 9 9 9 9 10 11 11 12 13 15 16 17 18 19 20 21 22 22 23 23 24
8 7 6 6 6 6 7 7 7 8 8 8 8 8 8 8 8 9 9 9 9 9 9 9 9 9 10 11 11 12 13 14 15 16 17 19 20 21 21 22 22 23 23
9 8 7 6 6 5 6 6 7 7 8 8 8 8 8 8 8 8 8 8 8 8 8 9 9 10 10 10 11 12 13 14 15 16 17 18 19 20 21 21 22 22 22

GEFSGL_500_meanwind_054.txt.gz
Wind_Speed
47 46 46 46 46 46 46 46 46 47 47 47 48 49 50 52 53 53 55 56 57 58 60 60 61 62 63 63 64 65 65 64 64 64 65 64 64 64 64 64 63 62 61
43 44 45 45 46 46 46 47 49 49 50 50 51 52 53 55 55 57 58 59 60 61 62 62 63 64 64 64 64 65 64 63 62 62 62 62 62 62 62 61 59 57 56
41 41 43 44 45 46 47 48 49 49 50 52 53 54 55 56 58 59 60 60 61 61 62 62 63 63 63 63 63 62 61 60 60 59 58 59 59 58 57 55 53 51 50
40 40 41 43 44 44 45 46 47 48 50 50 52 53 54 56 57 58 59 59 60 60 60 61 61 61 61 61 60 59 58 57 56 56 55 54 53 52 50 47 45 44 44
38 38 38 39 41 41 43 44 45 47 48 50 52 53 54 55 55 56 57 57 58 58 59 59 59 59 58 56 56 55 54 53 52 51 49 48 47 44 42 40 38 37 37
35 36 37 39 41 41 43 44 45 46 48 50 51 52 53 54 55 56 57 57 57 57 57 56 55 54 53 52 51 50 50 48 46 44 42 40 37 36 34 34 32 30 30
33 35 36 37 39 41 42 43 44 46 47 48 49 50 51 52 54 55 55 55 54 53 52 50 49 48 46 45 44 42 40 37 36 34 32 30 30 30 28 27 27 27 27
31 33 35 36 37 39 40 42 43 45 45 46 47 48 50 50 51 51 51 50 48 46 44 43 41 39 37 36 34 32 31 29 28 26 25 25 24 23 22 21 22 23 25
32 33 34 35 37 38 39 41 42 42 43 44 45 46 47 48 49 48 46 43 41 38 37 36 33 30 28 26 25 24 23 22 20 20 19 18 18 17 17 18 19 21 23
30 31 33 34 35 36 37 38 38 39 40 42 43 44 45 45 43 41 39 36 33 31 29 26 23 21 19 18 18 17 17 16 15 14 14 13 13 14 15 17 19 21 22
29 30 31 32 33 34 35 36 37 37 38 39 39 39 38 37 35 33 30 28 25 23 20 17 15 14 14 13 13 12 11 11 11 11 11 12 12 14 15 17 19 21 23
27 28 29 30 31 32 32 32 32 33 34 34 33 32 30 29 27 25 22 20 18 15 13 11 10 10 9 9 9 9 9 9 10 10 11 12 13 15 17 19 20 22 23
26 27 27 27 28 27 27 28 28 29 29 28 27 26 25 23 21 19 17 14 11 9 8 8 7 7 8 8 8 8 8 9 9 10 11 13 14 16 18 19 21 22 23
23 23 23 23 23 23 23 24 24 25 25 24 23 22 21 19 17 14 12 9 7 7 6 7 7 7 7 8 8 8 9 10 11 12 13 14 16 17 19 21 22 23 24
19 19 19 19 20 20 20 20 21 21 21 20 19 18 17 15 13 11 9 8 8 9 8 8 8 8 8 9 9 10 10 11 12 13 15 16 18 19 20 22 22 23 23
17 17 17 17 17 18 18 18 18 18 18 17 16 15 14 13 11 9 8 8 9 9 10 10 10 10 10 10 10 11 12 13 14 15 16 18 19 20 21 23 23 24 24
15 15 15 15 15 15 16 16 16 16 16 14 13 13 12 12 11 10 9 9 10 10 11 11 11 11 11 11 12 12 13 14 15 16 17 19 20 21 23 24 25 25 24
14 13 12 12 13 14 14 15 14 14 13 13 12 11 11 11 10 10 10 10 10 11 11 11 11 11 12 12 13 14 15 16 16 17 18 19 21 22 23 25 25 25 24
12 11 10 11 11 12 13 13 13 12 12 11 11 10 10 10 10 10 10 10 10 10 11 11 11 12 12 13 14 14 15 16 17 18 19 20 21 22 23 24 25 25 23
10 9 9 10 10 11 12 12 11 11 11 10 10 10 10 9 9 9 10 10 10 10 11 11 12 12 12 13 14 15 16 17 18 19 19 20 21 22 23 24 24 24 23
8 8 9 9 9 10 10 11 10 10 10 9 9 9 9 9 9 9 10 10 10 11 11 11 12 12 13 13 14 15 16 17 18 19 20 21 21 22 22 23 23 23 23
8 7 8 8 8 8 9 9 9 9 9 9 9 9 9 9 9 9 10 10 10 11 11 11 12 12 13 14 15 15 16 17 18 19 20 21 21 21 22 22 22 22 22
7 7 7 7 7 7 7 8 8 9 9 8 8 8 8 9 9 9 9 10 10 10 11 11 12 12 13 14 15 15 16 17 18 19 20 20 21 21 21 22 22 22 21
8 7 7 6 6 6 6 7 7 8 8 8 8 8 8 8 8 9 9 10 10 10 11 11 12 13 13 14 15 16 16 17 18 19 19 20 20 21 21 21 21 21 21
9 8 7 6 6 6 6 7 7 7 8 8 8 8 8 8 8 8 9 9 10 10 11 11 12 13 13 14 15 16 16 17 18 19 19 20 20 20 20 20 20 20 20
10 10 9 8 7 7 7 7 7 7 7 8 8 8 8 8 9 9 9 10 10 10 11 11 12 13 14 15 15 16 17 18 18 19 19 20 20 20 20 20 20 20 20

GEFSGL_500_meanwind_060.txt.gz
Wind_Speed
43 43 44 45 45 46 46 47 47 47 47 46 46 46 47 48 48 48 48 49 51 51 52 53 55 56 58 60 61 62 62 63 63 65 65 66 67 67 66 64 63 63 63
43 44 45 46 46 46 47 47 47 47 47 47 47 48 48 49 49 49 50 51 52 52 54 56 57 58 59 60 61 61 61 62 62 62 63 63 62 62 60 58 57 57 57
43 43 44 45 44 44 45 45 46 46 47 46 46 46 47 48 49 50 51 52 52 54 55 56 57 57 58 58 59 59 59 58 57 57 57 56 55 55 54 53 53 51 51
42 42 42 42 43 43 43 44 44 45 45 45 46 47 48 49 50 51 51 51 53 54 54 55 56 56 56 55 55 54 53 53 51 50 50 48 48 47 47 46 45 44 43
38 39 39 40 41 42 42 42 43 44 44 45 46 48 48 48 49 50 51 51 52 52 52 53 53 52 51 50 48 47 46 45 44 43 43 42 41 40 39 38 37 36 35
37 37 37 38 39 40 40 41 41 43 44 45 45 46 46 47 47 48 49 50 50 50 50 49 49 48 46 44 42 41 39 38 37 36 35 34 33 32 31 31 30 30 30
33 33 34 35 36 37 38 39 40 40 41 42 43 44 44 45 46 47 47 47 47 47 46 45 44 43 41 39 37 35 32 31 29 28 28 27 26 26 26 26 26 26 26
30 31 32 33 34 35 36 37 37 38 39 40 41 42 42 43 43 44 44 44 43 43 41 40 38 36 33 31 29 26 24 23 23 22 22 22 22 22 22 23 23 23 23
29 29 30 31 32 33 34 35 35 36 36 37 38 39 40 40 41 41 40 39 38 36 33 30 27 25 23 21 19 18 18 18 18 18 18 18 19 19 19 20 20 20 20
27 28 29 29 30 31 32 33 33 34 34 35 35 36 36 36 35 35 33 31 29 25 22 19 17 16 15 14 14 14 14 14 14 14 15 15 15 16 16 17 17 18 19
25 26 26 27 28 28 29 28 29 29 30 30 31 31 31 29 28 27 25 22 20 17 14 13 12 11 11 10 11 11 11 11 12 12 13 13 14 15 16 17 18 19 20
24 24 25 24 24 24 24 24 24 25 25 26 26 25 24 23 22 20 18 16 14 11 10 10 9 9 9 9 10 10 11 11 11 12 13 14 15 16 16 17 18 19 20
22 22 22 22 21 20 20 21 21 22 22 22 22 21 19 18 17 16 14 12 10 8 8 7 8 8 9 10 10 10 11 11 12 12 13 14 16 17 18 19 20 20 20
21 21 20 19 18 18 19 18 19 19 19 19 18 17 16 15 14 12 10 8 7 7 7 8 8 9 10 10 11 11 12 12 12 13 14 15 16 16 17 18 19 20 20
18 18 17 17 16 16 16 16 17 16 16 16 14 14 13 12 11 9 8 7 7 7 7 8 8 9 9 10 10 11 11 12 12 12 13 14 15 16 17 18 19 19 19
17 16 15 14 14 14 14 14 14 14 14 13 12 12 11 10 9 8 7 7 7 7 8 8 9 9 9 9 10 10 11 11 12 12 13 14 15 16 17 17 18 18 18
14 13 13 12 11 11 12 12 12 11 11 11 10 10 9 8 7 6 6 6 6 7 8 8 9 9 9 10 10 10 11 12 12 13 14 15 16 16 17 17 17 18 17
11 10 9 9 9 9 10 10 10 9 9 9 9 8 8 7 6 5 5 6 6 7 7 8 8 9 9 10 11 11 12 13 13 14 15 16 16 16 16 16 17 17 16
9 8 8 7 7 7 8 8 8 8 8 8 7 7 6 5 5 5 5 6 6 6 7 8 8 9 9 10 11 12 13 13 14 15 15 16 16 17 16 16 16 16 16
8 7 6 6 6 6 7 7 7 7 6 6 6 5 5 5 5 5 5 6 6 6 7 8 8 9 10 11 12 13 14 14 15 15 16 16 16 17 16 16 16 16 16
7 6 5 5 5 5 6 6 6 6 6 5 4 4 5 5 5 5 6 6 6 7 7 8 9 9 10 12 12 13 14 15 15 16 16 16 17 16 16 16 16 16 16
6 5 4 4 4 4 4 5 5 5 5 4 4 4 4 5 5 5 6 6 6 7 8 8 9 10 11 12 13 14 15 15 16 16 16 17 16 16 16 16 16 15 16
5 4 4 4 3 3 4 4 4 4 4 4 4 4 4 4 5 5 6 6 7 7 8 9 10 11 12 13 14 14 15 16 16 16 16 16 16 16 16 15 15 15 15
6 5 4 4 4 3 4 4 4 4 4 4 4 4 4 5 5 5 6 6 7 8 8 9 10 11 12 13 14 15 16 16 16 16 16 16 16 15 15 15 15 15 15
9 8 7 6 5 4 4 4 4 4 4 4 5 5 5 5 5 6 6 7 7 8 9 10 11 12 13 14 15 16 16 17 17 17 16 16 16 15 15 15 15 15 15
10 9 8 7 7 6 6 5 5 5 5 5 5 5 6 6 6 7 7 8 8 9 10 11 12 12 13 14 15 16 16 17 17 17 17 17 17 16 16 16 16 16 16

GEFSGL_500_meanwind_066.txt.gz
Wind_Speed
36 38 39 40 40 42 43 43 44 45 45 45 45 45 45 45 46 46 47 46 47 48 49 49 51 52 52 53 55 56 58 58 58 58 58 59 60 60 60 59 59 58 57
38 39 40 41 43 43 45 46 46 47 47 47 46 46 47 47 47 47 47 47 49 50 51 52 53 53 54 55 56 57 57 57 56 56 56 56 55 54 53 52 52 51 50
39 41 42 43 44 45 46 47 47 47 47 47 47 47 47 47 47 48 49 50 51 51 52 53 53 54 54 54 54 54 54 53 52 51 51 50 49 47 46 45 44 44 43
40 42 42 43 44 45 46 46 46 47 47 46 46 46 47 47 47 48 49 50 50 51 51 52 52 52 52 52 51 50 49 48 47 46 45 44 43 41 41 40 39 39 39
40 41 42 42 43 43 44 44 44 44 44 44 44 44 44 45 45 46 47 48 48 48 49 49 49 48 47 47 46 45 44 42 41 40 38 37 36 36 35 35 34 34 33
39 39 39 39 40 40 41 40 40 41 41 41 41 42 42 43 43 43 44 44 45 45 45 45 44 43 42 40 39 37 36 35 34 33 32 31 30 29 29 29 28 28 28
35 35 36 36 37 37 38 38 38 38 38 38 38 39 39 40 41 41 41 41 42 42 42 41 40 38 36 34 32 31 29 28 27 26 25 24 23 23 23 23 24 24 24
32 32 32 33 33 33 33 34 34 34 34 35 36 36 36 37 38 38 38 38 38 38 37 35 32 30 28 26 25 24 22 21 20 19 18 18 18 18 19 19 19 20 20
28 28 28 28 29 29 29 30 30 31 32 32 33 33 34 34 34 35 34 35 33 31 29 26 23 21 20 18 17 17 15 14 14 14 14 15 15 16 17 18 19 19 19
24 25 25 25 26 27 27 28 29 29 29 30 30 30 30 30 30 30 29 28 26 23 21 18 17 15 14 14 13 13 12 11 11 12 13 14 15 17 18 18 19 20 20
23 24 25 25 26 27 27 27 27 27 27 26 26 26 26 25 25 25 24 21 19 17 14 12 11 11 11 11 11 10 10 10 11 12 13 14 15 16 17 18 19 20 20
23 24 25 25 26 26 25 25 24 24 23 23 23 22 22 22 21 20 18 16 14 12 10 9 8 9 10 10 10 10 10 11 11 12 14 14 15 16 17 17 18 18 19
22 23 23 23 23 22 22 21 21 21 20 20 19 19 19 19 17 15 14 12 11 9 8 8 8 9 10 10 10 11 11 12 12 13 14 15 16 16 17 18 18 17 18
20 20 20 19 19 19 19 18 18 18 17 16 16 16 16 15 14 12 11 10 9 8 8 8 9 10 11 11 11 12 12 13 13 14 15 16 16 17 17 17 17 16 16
18 17 16 17 17 17 16 15 15 15 15 14 13 13 13 12 11 10 9 8 8 8 8 9 10 10 10 11 11 12 13 14 14 14 15 16 16 16 16 16 15 15 15
16 15 15 15 15 14 13 13 13 13 12 11 11 12 11 10 9 9 8 7 8 8 9 9 9 10 10 11 12 13 13 14 14 14 15 15 15 15 15 14 14 14 14
15 14 13 12 12 12 11 11 11 11 10 9 10 10 9 9 9 8 8 8 8 9 9 9 10 10 11 12 13 13 14 14 14 14 14 14 15 14 14 13 13 13 12
13 13 11 11 10 10 10 9 9 9 8 8 8 8 8 8 8 8 8 8 8 9 9 10 10 11 12 13 13 13 14 14 14 14 14 14 14 14 13 13 12 12 12
12 11 10 10 9 9 8 8 8 7 7 7 7 7 7 7 7 7 7 8 9 9 10 10 11 12 12 13 13 14 14 14 14 14 14 14 14 13 12 12 12 11 11
9 9 8 8 7 7 7 7 6 6 6 6 6 6 6 6 7 7 8 9 9 10 10 11 12 13 13 13 13 14 14 14 14 14 14 14 13 13 12 11 11 11 11
6 6 5 5 6 6 6 6 5 5 5 5 5 5 6 6 7 7 8 9 9 10 11 12 12 13 13 13 14 14 15 15 14 14 14 13 13 12 11 11 11 10 10
5 4 4 4 4 4 5 5 5 5 5 5 5 5 6 6 7 7 8 9 9 10 11 12 12 13 13 14 14 15 15 14 14 14 14 13 13 12 11 10 10 10 11
7 6 5 4 4 4 5 5 5 5 5 5 5 5 5 6 7 7 8 9 10 10 11 12 12 13 13 14 15 15 15 15 14 14 14 13 12 12 11 10 10 10 10
8 8 7 6 6 5 5 5 5 5 5 5 6 6 6 7 7 8 8 9 10 11 12 12 13 13 14 14 15 15 15 15 15 14 14 13 13 12 11 11 10 10 11
10 9 8 8 7 7 7 6 6 6 6 6 7 7 8 8 8 8 9 10 11 11 12 13 13 14 14 14 15 15 15 16 15 15 14 14 13 13 12 12 12 11 11
12 11 10 9 9 8 8 8 8 8 8 8 8 8 9 9 9 10 10 11 11 12 12 13 14 14 14 15 15 15 16 16 16 16 15 15 14 14 14 14 13 13 13

GEFSGL_500_meanwind_072.txt.gz
Wind_Speed
26 27 27 28 29 30 31 32 33 34 35 36 37 38 39 39 39 40 41 41 41 42 42 43 44 45 46 47 49 50 52 53 53 53 54 54 55 55 56 56 56 55 55
27 28 29 30 30 31 33 34 35 37 38 39 40 41 40 40 40 41 41 41 42 42 43 43 44 45 46 46 47 48 48 49 49 49 50 50 50 51 51 51 50 50 50
29 30 31 32 34 35 36 37 38 39 40 40 40 40 40 40 40 40 40 40 41 41 42 42 43 44 44 45 44 44 44 44 44 45 44 45 45 45 46 45 45 44 43
31 33 34 35 36 37 38 38 39 39 39 39 39 39 39 39 39 39 39 40 40 40 40 41 41 41 41 41 42 42 42 42 41 40 40 40 40 40 40 39 39 38 38
33 34 35 36 36 37 37 37 37 37 38 38 37 37 37 37 38 38 38 38 38 38 39 39 38 38 38 39 39 38 37 36 36 36 36 35 35 34 33 33 33 32 32
32 33 34 34 34 34 35 35 36 36 36 35 35 35 35 35 35 35 35 36 35 35 35 35 35 35 34 34 33 33 32 31 31 31 29 28 27 27 26 26 25 25 25
30 31 31 31 31 31 31 32 32 32 32 31 31 32 32 33 33 33 33 33 32 32 31 31 31 30 29 29 28 27 26 26 25 24 24 23 22 22 22 22 22 22 22
27 27 28 28 28 28 28 28 28 28 29 29 29 30 30 31 31 30 30 29 28 28 28 27 26 25 23 22 21 21 21 20 19 19 18 17 17 18 18 19 19 20 20
24 25 25 25 25 25 26 26 27 27 28 28 29 29 29 28 28 27 25 25 24 24 23 22 21 20 19 19 19 18 17 17 16 15 15 15 15 16 17 18 18 18 19
22 22 22 23 24 25 25 25 26 27 27 27 27 27 26 24 23 22 22 22 21 20 19 18 17 17 16 16 16 16 15 15 15 15 16 16 16 16 17 18 18 18 19
20 20 21 22 22 23 23 24 24 25 24 24 23 22 21 20 20 19 19 18 17 16 15 15 14 14 15 15 15 15 14 14 15 16 16 16 16 17 18 18 19 19 19
18 19 19 20 20 21 21 21 21 20 20 19 19 19 18 17 16 16 16 15 14 14 14 13 13 14 14 15 15 15 14 15 15 16 16 16 17 18 18 18 18 18 18
18 18 18 18 18 18 18 18 17 17 16 16 16 16 15 15 14 14 14 13 13 12 12 12 12 13 14 14 14 15 15 15 16 16 16 17 17 18 18 18 18 18 17
17 18 17 17 16 16 16 15 15 15 14 14 13 13 13 13 12 12 12 12 11 10 10 11 12 13 14 14 14 15 16 16 16 16 17 17 17 17 17 18 17 17 17
16 15 15 14 14 14 14 13 13 12 12 12 11 11 11 11 11 11 11 10 10 10 11 12 13 13 14 14 15 15 16 16 16 16 17 17 17 17 17 16 16 16 15
14 14 13 13 13 12 12 11 11 11 11 10 10 9 9 9 9 10 9 9 9 10 11 12 12 13 14 14 15 15 15 15 16 16 16 16 16 15 15 15 16 15 14
13 12 12 11 11 11 10 9 9 9 9 8 8 8 8 8 8 8 8 8 9 10 10 12 12 13 14 14 15 15 15 15 15 15 15 15 15 14 14 14 14 14 14
10 9 9 9 8 8 8 7 7 7 6 6 6 6 6 7 7 7 7 8 9 9 10 11 12 13 13 14 14 15 15 15 15 15 15 14 14 13 13 13 13 13 13
7 6 6 6 6 6 5 5 5 5 5 5 5 5 5 6 6 6 7 8 9 9 10 11 12 13 13 14 14 14 15 15 15 14 14 14 13 13 12 12 12 12 12
5 5 4 3 3 3 3 4 4 4 4 4 4 4 5 5 5 6 7 8 9 10 11 12 12 13 14 14 14 14 14 14 14 14 13 13 12 12 11 11 11 11 11
6 5 4 3 3 3 3 3 3 3 3 4 4 4 5 5 5 6 7 8 9 10 11 12 13 13 14 14 14 14 14 14 14 13 13 12 12 11 10 10 10 10 10
9 7 6 6 5 5 4 4 4 4 5 5 5 5 5 5 6 6 7 8 9 10 11 12 13 14 14 15 15 14 14 14 14 13 13 12 11 11 10 10 10 10 10
11 10 9 8 7 7 7 7 6 6 6 7 7 7 7 7 7 7 8 9 9 11 12 13 13 14 14 15 15 15 15 14 14 13 13 12 12 11 11 11 11 10 11
13 11 10 9 9 9 8 8 8 8 8 8 8 8 8 8 8 8 9 9 10 11 12 13 14 14 15 16 16 16 16 15 15 14 13 13 13 12 13 12 12 12 12
14 13 12 11 11 11 10 10 9 9 9 9 9 9 9 9 9 9 10 10 11 12 12 13 14 15 15 16 16 16 17 16 16 15 15 15 14 15 15 15 15 15 15
15 14 13 13 12 12 11 10 10 9 9 9 9 9 9 9 9 10 10 11 12 12 13 13 14 15 15 16 16 17 17 17 17 17 16 16 16 16 16 17 17 16 16

GEFSGL_500_meanwind_078.txt.gz
Wind_Speed
21 22 22 21 21 21 21 21 21 22 23 24 25 26 28 30 32 33 34 36 37 38 38 39 40 41 42 44 45 46 47 47 48 49 50 50 50 50 51 51 50 50 50
22 22 23 22 22 22 22 23 23 24 25 27 28 30 32 33 34 35 36 36 37 38 39 40 41 42 43 44 44 45 45 46 47 47 47 48 48 48 48 48 47 47 46
23 23 23 23 24 24 25 25 26 27 29 30 32 33 33 34 35 35 36 36 37 38 39 40 40 41 42 42 43 43 44 44 44 44 44 44 44 44 43 43 43 43 42
24 24 25 25 25 26 27 27 28 29 30 32 33 33 33 34 34 35 35 36 36 37 38 39 39 40 40 40 40 40 40 40 40 40 40 40 40 39 39 38 38 37 36
24 25 25 25 26 27 28 29 29 30 30 30 31 32 32 33 34 34 34 35 36 36 37 37 37 37 37 37 37 37 37 36 36 36 35 35 34 33 33 32 31 31 30
24 25 25 26 27 27 28 28 29 29 30 30 31 31 31 31 32 33 33 34 34 35 35 34 34 34 34 33 33 33 32 31 30 30 29 29 28 27 27 26 26 25 25
24 24 25 25 26 27 27 27 28 28 28 28 28 29 29 30 31 31 31 32 32 32 32 31 30 30 29 28 28 27 27 26 26 26 25 25 24 24 23 23 23 22 22
22 22 23 23 24 24 25 25 25 26 27 27 28 29 29 30 30 30 30 30 29 28 28 27 26 26 24 24 23 23 23 22 22 21 21 21 20 20 20 20 20 20 20
21 21 21 22 22 23 23 24 24 25 25 26 27 27 27 28 27 27 26 25 25 24 23 23 22 21 21 21 20 20 20 20 19 19 19 19 18 18 18 18 19 19 19
20 20 21 21 21 22 22 22 23 23 23 23 24 24 23 22 22 21 21 20 20 20 20 19 19 19 19 19 18 19 19 18 18 18 17 18 17 17 17 18 18 18 17
19 19 20 20 20 20 21 21 21 21 21 21 20 19 18 18 18 18 18 17 17 17 17 17 17 17 17 17 17 17 17 17 16 16 16 17 17 16 16 17 17 16 15
18 18 18 18 19 19 19 19 19 18 18 17 17 17 16 16 16 16 16 16 16 16 16 15 15 15 16 16 16 16 16 16 16 16 16 16 16 16 16 16 15 15 14
16 16 17 17 17 17 17 17 17 16 16 15 15 15 15 15 15 14 14 14 15 15 14 14 14 15 15 15 15 16 16 16 16 16 16 16 15 15 15 15 14 13 12
15 15 15 15 15 15 16 16 15 14 14 14 13 13 13 13 12 12 12 13 13 13 12 13 14 14 14 15 15 15 15 15 16 16 15 15 15 14 13 13 13 12 11
15 15 15 14 14 14 14 13 13 13 12 12 11 11 11 10 10 10 10 11 11 11 11 12 13 13 14 15 15 15 15 15 15 14 14 14 13 13 12 12 11 11 11
13 13 13 13 12 12 11 11 11 10 10 10 9 9 9 9 9 9 9 10 10 10 11 12 12 13 14 15 15 15 14 14 14 13 13 12 12 11 11 10 10 10 9
11 11 10 10 10 9 9 8 8 8 8 7 7 7 7 7 7 8 8 9 9 10 11 12 13 13 14 14 14 14 13 13 13 12 12 11 11 10 9 9 9 8 9
8 7 6 6 6 6 5 5 5 5 5 5 5 5 5 6 6 7 8 9 9 10 11 12 12 13 13 13 13 13 13 12 11 11 11 10 9 9 8 8 8 8 8
5 4 4 4 4 4 4 3 3 4 4 4 4 4 5 5 6 7 8 8 9 10 11 12 12 13 13 13 12 12 12 11 11 10 10 9 9 8 8 7 7 7 7
5 4 4 4 4 4 4 4 4 4 4 4 4 5 5 5 6 7 8 9 9 10 11 12 12 13 13 13 12 12 11 11 10 10 9 9 8 8 7 7 7 7 7
8 7 6 6 6 6 5 5 5 5 5 6 6 6 6 7 8 8 9 9 10 11 12 12 13 13 13 13 13 12 12 11 10 10 9 9 9 8 8 8 8 8 9
10 10 9 9 8 8 8 7 7 7 7 7 7 8 8 9 9 10 10 11 11 12 13 13 14 14 14 14 14 13 13 12 11 11 11 10 10 10 10 10 10 11 11
13 12 12 11 10 9 9 9 9 9 9 9 9 10 10 10 11 11 11 12 12 13 13 14 14 14 15 15 15 15 14 14 13 13 12 12 12 12 12 12 12 12 12
15 14 13 12 11 11 10 10 10 10 10 10 10 11 11 11 11 12 12 12 13 13 13 14 14 15 15 16 16 16 15 15 14 14 14 14 13 13 13 13 13 13 13
16 15 14 14 13 12 11 11 11 11 11 11 11 11 12 12 12 12 13 13 13 13 13 14 14 15 15 16 16 16 16 16 15 15 15 15 14 14 14 14 13 13 14
17 16 15 15 14 13 12 12 12 12 12 12 12 12 12 12 12 12 13 13 13 14 14 14 14 15 15 15 16 16 16 16 16 15 15 15 15 15 15 14 14 14 13

GEFSGL_500_meanwind_084.txt.gz
Wind_Speed
26 25 24 22 21 21 21 20 19 19 19 20 22 22 23 24 26 27 29 30 32 33 34 36 39 41 42 43 44 46 47 48 49 50 51 51 51 51 51 52 51 50 50
25 25 24 23 22 22 22 21 20 21 21 21 22 23 25 26 28 30 31 32 34 36 37 39 41 42 43 44 45 46 46 47 48 48 49 49 49 48 49 48 48 47 47
25 25 24 23 23 23 23 23 23 23 23 24 25 26 27 29 30 32 33 35 36 38 39 40 41 42 43 44 44 45 45 46 46 46 46 46 45 45 44 44 44 43 42
25 25 25 25 25 25 25 26 25 25 25 26 27 28 30 31 33 34 35 36 37 38 39 40 40 41 42 42 43 43 43 43 43 42 41 41 40 40 39 38 37 36 36
24 24 24 25 26 25 25 25 25 25 27 28 29 30 30 32 33 34 34 35 36 37 37 38 39 40 40 40 40 40 39 38 37 37 36 35 35 34 34 33 33 32 32
23 23 24 24 24 24 24 25 26 26 27 28 29 29 30 31 32 33 33 34 35 35 36 36 36 37 37 36 36 34 33 33 32 31 31 31 31 30 30 29 28 28 27
22 22 23 23 22 23 24 25 26 26 27 28 28 29 30 30 31 32 32 33 33 33 33 33 32 32 31 31 30 29 28 28 27 27 27 27 27 27 26 25 25 24 24
20 21 22 23 23 24 24 24 25 25 26 27 27 28 28 28 29 29 30 30 30 30 29 28 27 26 25 25 24 25 24 24 25 25 25 24 24 23 23 22 22 22 21
18 20 21 21 22 22 23 23 24 24 25 25 25 26 26 26 27 27 27 26 26 25 24 23 23 23 22 22 22 22 22 22 22 23 23 22 22 22 21 20 20 19 19
17 18 19 19 20 20 21 22 22 22 23 23 24 24 24 24 24 24 23 23 22 22 22 22 22 21 20 20 20 20 21 21 21 21 21 20 19 19 18 18 17 17 17
17 17 17 18 19 19 19 20 20 21 21 22 22 22 22 22 21 21 20 20 20 20 20 20 20 19 19 19 19 19 19 20 20 19 19 18 18 17 17 16 16 16 15
16 16 16 16 17 18 18 19 19 19 20 20 20 20 19 19 18 18 17 18 18 18 18 18 18 18 17 17 18 18 19 18 18 17 17 17 16 16 16 15 14 14 13
14 14 15 15 15 15 16 16 17 17 17 17 17 16 16 16 16 16 16 16 16 16 15 15 15 16 16 16 17 17 17 17 16 16 16 16 15 15 14 14 13 12 12
12 12 12 12 12 13 13 14 14 14 14 14 14 14 14 14 14 14 14 13 13 13 13 13 14 14 15 16 16 16 16 16 15 14 14 14 14 13 12 12 11 10 10
10 10 10 11 12 12 12 12 12 12 12 12 12 12 12 12 11 11 11 11 11 11 11 12 12 13 13 14 15 15 15 14 13 13 12 12 12 11 11 10 9 9 9
7 8 8 8 9 9 9 9 9 9 10 10 10 9 9 9 8 8 9 9 9 9 10 11 11 12 12 13 13 13 13 12 12 11 11 10 10 10 9 9 9 8 8
5 5 6 6 6 6 6 5 6 6 6 6 6 6 6 6 6 6 7 7 8 9 9 10 10 11 11 11 11 11 11 10 10 10 9 9 8 8 8 7 7 7 7
3 3 3 3 3 3 3 3 3 3 2 2 2 3 3 3 4 5 6 7 7 8 8 9 9 10 10 10 10 10 10 9 9 8 8 8 7 7 6 6 5 5 5
0 0 1 1 1 1 1 1 1 1 1 1 2 2 2 3 4 5 5 6 7 7 8 9 9 10 10 10 9 9 9 8 8 7 7 6 6 6 5 5 5 5 5
3 3 3 3 3 3 3 3 3 3 3 3 3 3 4 4 5 5 6 7 7 8 8 9 10 10 10 10 10 9 9 8 8 7 6 6 6 6 5 5 5 5 5
6 6 5 5 5 5 5 5 5 5 5 5 5 5 6 6 6 7 7 8 8 9 9 10 10 10 10 10 10 10 9 9 8 8 7 7 7 7 7 7 7 7 7
10 9 9 8 8 7 7 7 7 7 7 7 7 7 7 7 7 8 8 8 9 9 10 11 11 11 11 11 11 11 10 10 10 9 9 8 8 8 8 8 8 8 8
13 12 11 10 10 9 9 9 9 8 8 8 8 8 8 8 8 9 9 9 10 10 11 11 12 12 12 12 12 12 11 11 11 10 10 10 9 9 9 9 8 8 8
14 13 13 12 11 11 11 10 10 9 9 8 8 8 8 9 9 9 9 10 10 10 11 12 12 13 13 13 13 13 12 12 12 11 11 11 11 10 10 9 9 9 8
16 15 14 13 13 12 11 11 10 10 9 9 9 9 9 8 9 9 9 10 10 10 11 11 12 12 13 13 13 13 12 12 12 11 11 11 11 10 10 9 9 8 8
16 15 14 13 13 12 12 11 11 10 10 9 9 9 8 9 9 9 9 10 10 10 10 10 11 11 12 12 12 12 12 12 11 11 10 10 9 9 9 8 8 8 8

GEFSGL_500_meanwind_090.txt.gz
Wind_Speed
31 31 31 29 29 28 28 28 28 28 27 26 26 27 26 25 26 27 27 28 29 30 30 31 32 33 34 36 37 38 40 42 43 44 45 47 48 48 49 48 48 47 47
28 29 29 29 29 28 28 28 27 27 27 27 27 27 26 26 26 27 27 28 29 30 31 32 33 34 36 37 38 40 41 43 44 45 45 45 46 46 46 46 45 44 42
27 27 28 28 28 28 28 28 28 27 27 27 27 26 26 27 27 27 28 29 31 31 32 33 34 36 37 38 39 40 42 42 43 43 43 43 43 43 42 41 40 39 39
26 26 26 27 28 29 29 29 28 27 28 28 27 27 28 28 28 29 29 30 31 32 34 34 35 37 37 38 39 40 40 41 41 41 40 39 38 37 36 35 35 34 34
25 26 26 27 27 28 28 29 29 28 28 28 28 28 29 29 29 29 29 30 31 32 33 34 35 36 36 37 37 37 37 37 37 36 35 34 33 32 32 32 31 30 30
24 24 25 25 26 26 26 26 27 27 27 27 27 27 27 28 28 29 29 30 31 32 32 33 34 34 35 35 35 35 34 32 32 31 30 29 29 29 29 28 27 27 26
23 24 24 24 24 24 26 26 26 26 25 25 25 25 25 26 26 27 28 29 30 31 31 31 32 32 32 32 31 30 29 28 27 27 26 26 26 26 26 26 25 24 23
21 22 23 23 24 24 24 23 24 24 24 24 24 24 25 26 27 27 28 29 29 29 30 30 29 29 29 27 27 27 26 26 25 25 25 25 24 24 23 23 22 21 20
18 19 20 20 21 21 21 21 22 22 22 23 23 24 24 25 26 27 27 27 27 27 27 27 27 26 26 25 25 25 25 24 24 24 23 23 22 22 21 20 19 18 18
14 15 15 16 16 18 18 19 19 19 20 21 21 22 22 23 24 24 24 25 25 25 25 24 24 24 24 23 23 23 23 23 22 22 22 21 20 20 19 18 18 18 18
13 13 14 14 15 15 16 16 17 18 18 18 19 20 20 21 21 22 22 22 22 22 22 22 22 21 21 21 21 21 21 21 21 21 20 19 19 18 18 17 17 17 17
11 12 13 13 14 14 14 15 16 16 17 17 17 18 18 19 19 20 20 20 20 19 19 19 19 20 20 20 20 20 20 20 19 19 18 17 17 16 16 16 16 15 15
9 10 11 11 11 12 13 14 14 15 15 15 15 16 16 17 17 17 17 17 17 17 17 17 18 18 18 18 18 18 18 17 17 17 16 16 16 15 15 14 14 13 12
8 8 9 9 10 11 12 13 13 14 14 14 14 14 14 15 15 14 14 14 14 15 15 16 16 16 16 17 17 17 16 16 15 15 15 14 14 13 13 12 11 11 10
6 7 7 8 9 9 10 10 11 10 10 11 11 11 11 11 11 11 11 11 12 13 14 14 14 15 15 15 14 14 14 14 13 13 12 12 11 11 10 10 9 8 7
5 5 6 7 7 8 8 8 8 8 8 8 8 9 8 8 9 9 9 9 10 11 12 12 12 13 13 13 12 12 11 11 11 11 10 10 9 9 8 8 7 6 5
4 4 5 5 5 6 6 5 5 6 6 6 6 6 6 6 6 7 8 9 10 10 10 11 11 11 11 11 11 10 10 10 10 9 8 8 7 7 6 5 5 4 4
3 4 4 4 4 4 4 4 4 4 4 4 5 5 5 5 6 7 8 8 9 9 10 10 10 10 10 10 10 9 9 8 8 7 7 6 6 5 5 4 3 3 3
2 2 2 3 3 4 4 4 4 4 4 4 5 5 6 6 7 8 8 9 9 9 10 10 10 10 10 10 10 9 8 8 7 7 6 6 5 4 4 3 3 3 3
3 3 3 3 4 4 5 5 5 6 6 6 6 6 7 7 8 8 9 9 10 10 10 10 11 11 11 11 10 10 9 8 8 7 7 6 5 5 4 4 4 4 4
6 6 6 6 6 6 7 7 7 7 7 8 8 8 8 8 9 9 10 10 11 11 11 12 12 12 12 11 11 10 10 9 9 8 8 7 6 6 5 5 5 5 5
10 10 9 9 9 9 9 8 8 8 8 9 9 9 9 9 10 10 11 11 11 12 12 12 13 13 12 12 12 12 11 11 10 10 9 8 8 7 6 6 6 6 6
12 12 12 11 11 10 10 10 10 10 10 10 10 10 10 10 10 10 11 11 12 12 12 13 13 13 13 13 13 13 12 12 11 11 10 10 9 8 8 7 7 6 6
14 14 14 13 12 12 12 11 11 10 10 10 10 10 10 10 10 10 11 11 11 11 12 12 13 13 13 13 13 13 12 12 12 11 10 10 9 9 8 8 7 7 7
16 15 15 14 13 12 12 12 11 11 11 10 10 10 10 10 10 10 10 11 11 11 11 11 12 12 12 13 13 12 12 12 11 11 10 10 9 9 8 8 8 7 7
16 16 15 14 13 13 12 12 11 11 11 10 10 10 10 10 10 10 10 10 11 11 11 11 11 11 11 11 11 11 11 11 11 11 10 10 9 9 8 8 8 8 8

GEFSGL_500_meanwind_096.txt.gz
Wind_Speed
21 22 22 22 22 22 22 23 23 23 22 21 20 20 21 21 22 22 22 22 23 23 24 25 26 26 28 28 29 29 30 31 33 34 35 36 37 38 39 41 42 42 42
20 20 21 21 21 21 21 22 22 22 21 21 21 21 21 21 22 22 23 23 23 24 24 25 26 27 28 28 28 29 30 32 33 34 34 35 37 38 39 40 40 40 40
18 19 19 20 20 20 21 21 20 20 21 21 21 21 21 21 22 22 23 23 24 24 25 25 26 27 28 28 29 30 31 32 33 34 34 36 37 37 37 37 37 36 36
17 17 18 18 19 20 20 21 21 21 21 21 21 21 21 21 22 22 23 24 25 25 25 26 26 27 28 29 30 31 32 32 33 34 34 35 35 35 34 34 33 32 32
17 17 17 18 18 19 20 20 20 21 21 21 21 21 22 23 23 24 24 25 25 25 26 26 27 28 29 29 30 31 31 32 32 32 32 32 32 31 30 30 29 29 29
17 17 17 17 18 18 19 19 20 20 20 21 21 21 21 22 22 23 23 24 24 25 25 26 26 27 28 28 29 29 30 30 30 30 30 29 28 28 27 27 27 26 25
17 18 18 17 17 18 18 18 17 17 18 19 19 19 19 19 20 21 22 22 23 24 25 25 26 27 27 27 28 28 28 28 28 27 27 27 27 26 25 25 24 23 23
16 16 16 16 16 16 16 16 16 16 17 17 17 18 19 20 20 21 21 22 23 23 24 25 25 26 26 25 25 25 25 25 25 25 25 25 25 24 23 23 22 21 21
13 13 13 13 14 14 14 14 15 16 17 17 17 18 18 19 20 19 19 20 21 22 22 23 24 24 24 24 23 23 23 23 23 23 23 23 23 22 21 21 20 20 19
10 11 11 11 11 12 13 14 15 15 16 16 16 17 16 17 17 18 18 19 19 19 20 21 21 22 22 22 21 21 21 21 22 22 21 21 21 20 20 19 19 18 18
7 7 8 8 9 10 11 11 13 14 14 15 15 15 15 15 15 16 16 17 17 17 18 18 18 18 18 19 19 20 20 20 20 20 19 19 19 19 18 17 17 17 17
4 5 5 5 6 6 7 8 9 10 11 12 12 12 13 13 13 14 14 15 15 15 15 15 15 15 16 17 17 18 18 18 18 18 18 17 17 17 16 16 16 16 15
3 3 3 4 4 5 6 7 7 8 9 9 10 10 10 10 10 11 11 12 12 12 12 12 13 14 15 15 15 15 15 15 15 15 15 15 15 15 15 15 14 14 13
2 2 2 2 3 3 4 5 5 5 6 6 7 7 7 7 8 8 8 9 9 9 10 11 12 12 13 13 13 13 13 13 13 13 14 13 13 13 13 12 11 11 10
2 2 1 1 1 2 2 2 2 3 3 4 4 5 5 5 5 6 6 6 6 7 9 10 10 11 11 11 12 12 12 12 12 12 12 11 11 11 10 9 9 9 9
2 2 1 1 1 2 2 2 1 1 1 2 2 3 3 3 3 4 4 5 6 7 8 9 9 9 10 10 10 10 10 10 10 10 10 9 8 8 8 7 7 7 7
3 2 2 2 2 2 2 2 2 2 2 2 2 2 2 3 3 4 5 6 6 7 7 8 8 9 9 9 9 9 9 9 8 8 8 7 7 6 6 6 6 5 5
4 4 3 3 3 4 4 4 4 4 4 4 4 5 4 4 5 5 6 6 7 7 7 8 8 9 9 9 9 9 8 7 7 7 7 6 6 6 5 5 5 4 4
6 6 5 5 5 5 6 6 6 6 6 6 6 6 6 6 7 7 7 8 8 9 9 9 9 9 9 9 9 9 8 8 8 7 7 6 6 5 5 4 4 4 4
8 7 7 7 7 7 7 7 7 8 8 8 8 8 8 8 9 9 9 10 10 10 11 11 11 11 11 11 11 10 9 9 9 8 8 7 6 6 5 5 5 4 4
10 10 10 9 9 10 10 10 10 10 10 10 10 10 10 10 10 10 10 10 10 11 11 12 12 12 12 12 12 11 11 10 10 9 8 8 7 7 6 6 5 5 5
12 12 12 12 12 12 12 12 12 12 11 11 11 10 10 10 10 10 10 10 11 11 11 12 12 13 13 13 13 12 12 12 11 11 10 9 8 8 7 6 6 5 5
15 14 14 14 14 14 14 14 13 13 12 12 11 11 11 10 10 10 10 10 11 11 11 11 12 12 13 13 13 13 12 12 12 11 11 10 9 8 7 7 6 6 6
16 15 15 15 14 14 14 14 13 13 12 12 12 11 11 11 11 11 11 11 11 11 11 11 11 11 11 12 12 12 12 12 12 11 11 10 10 9 8 8 7 7 7
16 16 16 15 15 14 14 13 13 13 12 12 11 11 11 11 11 11 11 11 11 11 11 11 11 11 11 11 11 11 11 11 11 11 11 11 11 10 9 9 9 9 9
16 16 15 15 15 14 14 13 13 12 12 12 11 11 11 11 11 11 11 12 12 12 12 12 12 12 11 11 11 11 11 11 11 11 11 11 11 11 11 10 10 10 11

GEFSGL_500_meanwind_102.txt.gz
Wind_Speed
18 18 18 18 18 19 20 20 20 20 20 20 20 20 21 21 21 22 22 23 23 24 25 26 27 27 28 28 29 29 30 31 32 33 34 34 36 37 38 39 39 40 40
18 18 18 18 18 18 19 20 19 20 20 19 19 20 21 22 22 22 22 23 23 24 24 25 26 27 27 28 29 30 30 31 32 33 34 35 36 37 38 39 39 39 40
19 19 18 18 18 18 19 19 19 19 19 18 19 20 21 22 22 22 22 22 22 23 24 24 25 26 28 29 29 30 30 31 32 33 34 35 37 37 38 38 39 39 39
19 19 18 18 18 18 19 19 20 19 19 19 20 21 21 21 21 21 22 22 23 24 24 25 26 27 27 28 28 29 30 31 32 34 35 36 36 37 37 37 37 37 37
19 19 18 18 19 19 19 19 19 19 19 20 21 21 22 22 22 22 22 23 24 24 25 26 26 27 27 28 29 30 31 32 32 33 34 34 35 35 35 35 36 35 35
20 19 19 18 19 19 20 20 20 20 20 21 21 22 22 22 22 22 23 23 24 24 25 25 26 26 27 28 29 30 31 31 31 32 32 32 33 33 33 33 33 32 32
19 18 17 17 17 18 18 18 19 20 21 21 21 21 21 22 22 22 23 23 23 23 24 24 25 25 26 27 28 29 29 29 30 30 31 31 31 31 31 30 30 29 29
17 16 16 16 16 16 15 16 17 17 17 18 18 18 19 19 19 20 20 21 21 22 22 23 24 24 25 26 27 28 28 28 28 28 29 29 29 28 28 27 27 27 27
14 14 13 13 14 14 14 14 15 15 16 16 16 17 17 17 18 18 18 19 20 20 21 22 22 23 24 24 25 25 26 26 26 27 27 27 26 26 26 25 25 24 24
12 11 11 12 12 13 13 13 14 14 14 14 14 15 16 16 16 17 17 18 19 19 20 20 21 21 22 22 22 23 23 24 24 24 24 24 23 23 23 22 22 21 21
10 9 9 10 10 11 11 12 13 12 12 13 13 13 14 14 15 15 16 16 17 18 18 19 19 19 19 19 19 19 20 20 20 21 21 21 20 20 20 19 19 18 18
7 7 7 7 7 8 8 9 10 10 11 11 11 11 12 13 13 13 14 14 15 15 16 16 16 16 16 16 17 17 17 17 18 18 18 18 18 18 17 17 16 16 15
4 5 5 5 5 5 5 5 6 7 7 7 8 8 9 10 11 12 12 11 12 12 12 12 12 13 13 14 14 15 15 16 16 16 16 15 15 15 15 14 13 13 12
4 3 3 3 2 2 2 2 2 3 3 4 5 6 6 7 8 8 8 8 8 9 9 10 11 12 12 13 13 13 14 13 13 13 13 13 13 13 12 11 10 10 10
4 3 3 2 1 0 0 1 1 2 2 3 3 4 4 4 5 5 6 6 6 7 8 9 10 11 11 11 11 11 11 11 11 11 11 11 11 10 9 9 8 8 8
3 3 3 2 2 2 2 2 3 3 3 3 3 3 4 4 4 4 5 5 6 7 8 9 9 10 10 10 9 9 10 10 10 10 9 9 9 8 8 8 7 7 6
4 4 4 3 3 4 4 4 4 4 4 5 5 5 5 5 5 5 5 6 6 7 8 8 8 9 9 9 9 9 9 9 9 9 8 8 8 8 7 7 7 6 6
5 5 5 5 5 5 5 5 5 5 6 6 6 6 6 6 7 7 7 7 8 8 9 9 9 9 9 9 10 9 9 10 9 9 9 8 8 8 7 7 7 6 5
7 7 7 7 7 7 7 8 8 8 8 8 9 9 9 9 9 9 9 9 10 10 10 11 11 11 11 11 11 11 11 11 11 10 9 9 8 8 8 7 7 7 6
9 9 9 9 10 10 11 11 11 11 11 11 11 11 11 11 10 10 10 10 11 11 12 12 12 12 12 12 12 12 12 12 12 12 11 10 10 9 9 8 8 8 7
12 12 12 12 13 13 13 13 13 14 14 13 13 12 12 12 12 11 11 11 11 11 12 12 12 13 13 13 13 13 13 13 13 13 12 12 11 10 10 9 9 9 8
14 14 14 14 14 15 15 14 14 14 14 14 14 13 13 13 12 12 12 12 12 12 12 12 12 13 13 13 13 13 13 13 13 13 13 13 12 12 11 11 10 10 9
16 15 15 15 15 15 14 14 14 15 14 14 14 14 14 14 14 13 13 13 13 13 12 12 12 13 13 13 13 14 14 14 13 13 13 13 13 13 12 12 11 11 11
16 16 16 16 15 15 15 15 15 14 14 14 14 14 14 14 14 14 14 14 13 13 13 13 13 13 13 14 14 14 14 14 14 14 14 14 14 13 13 13 13 12 12
17 16 16 16 15 15 15 14 14 14 14 14 14 14 14 14 14 14 15 15 14 14 14 14 14 14 14 14 15 14 14 14 14 14 15 14 14 14 14 14 14 14 14
16 16 16 15 15 14 14 14 14 14 14 14 14 14 14 13 13 14 14 14 15 15 15 15 15 15 15 15 15 15 15 15 15 15 15 15 15 15 15 15 15 15 15

GEFSGL_500_meanwind_108.txt.gz
Wind_Speed
21 21 21 21 22 22 22 22 22 22 23 24 23 22 23 24 25 26 27 27 27 26 26 27 27 29 30 31 32 33 34 34 34 35 36 36 36 36 37 37 38 38 39
20 20 21 21 21 21 21 21 21 21 21 22 23 23 23 24 24 25 26 26 26 25 26 26 27 28 29 30 30 31 32 33 34 34 35 37 36 36 37 38 38 39 40
20 20 20 21 21 21 21 21 21 21 21 21 21 22 22 23 23 24 24 25 25 25 25 26 28 28 28 29 29 30 31 32 33 34 34 35 36 36 37 37 38 39 40
20 20 21 21 21 21 21 21 21 21 22 22 22 21 22 22 22 23 23 24 24 24 26 26 26 27 28 28 29 30 30 31 32 33 34 35 36 36 37 37 38 39 39
21 21 20 21 21 20 20 21 20 20 21 22 22 22 22 21 21 22 22 23 24 24 25 26 27 27 27 28 29 29 30 30 31 33 34 34 35 35 36 37 37 37 37
20 21 20 21 21 20 19 20 20 19 19 20 21 21 21 21 21 21 22 23 23 23 24 25 25 26 27 27 27 28 28 29 30 31 32 33 33 34 35 35 35 34 34
20 19 19 19 19 18 18 18 18 17 17 17 17 17 18 18 19 19 19 20 21 21 22 23 23 23 24 24 25 26 26 27 28 29 29 30 31 31 31 31 31 31 30
17 17 17 17 17 16 16 15 16 15 15 14 14 15 15 15 15 16 17 17 18 19 19 20 20 21 22 23 23 24 24 25 26 26 27 27 28 28 28 28 27 27 26
14 14 14 14 13 13 13 14 13 13 13 13 13 14 14 14 14 15 15 15 16 16 17 17 18 19 19 20 20 21 22 22 22 22 23 24 23 23 23 23 23 23 22
11 11 10 10 10 10 11 11 11 11 11 11 11 11 11 11 12 12 12 13 13 14 15 15 16 17 17 18 18 19 19 19 19 20 19 19 19 19 19 19 20 20 20
9 9 8 8 9 8 9 9 9 9 9 9 9 9 9 9 9 9 10 11 11 12 13 14 14 15 15 15 16 16 16 16 16 16 16 17 17 17 17 17 18 18 18
7 6 7 7 7 7 7 7 7 6 7 7 7 7 8 8 8 8 8 9 10 10 11 12 12 12 13 13 13 14 14 14 14 15 15 15 15 15 16 16 16 16 16
5 5 5 4 4 5 5 4 4 4 4 5 5 5 6 6 7 7 8 9 9 9 9 9 9 10 10 11 11 12 12 12 13 13 13 13 13 13 14 14 14 13 13
4 4 3 3 3 3 2 2 2 2 2 3 3 4 4 5 6 6 6 7 6 6 6 7 8 8 9 9 10 10 10 11 11 11 12 12 12 12 12 12 12 12 11
5 5 4 4 3 3 2 2 1 1 1 1 1 1 1 2 2 2 3 3 3 3 4 5 6 6 7 8 8 9 9 9 9 9 10 10 10 11 11 11 11 10 10
6 6 5 5 5 4 4 4 3 3 3 3 3 3 3 3 3 3 3 3 3 4 4 4 5 5 6 7 7 7 8 8 8 8 8 9 9 9 9 9 9 9 9
7 7 6 6 6 6 6 6 6 6 5 5 5 6 6 6 6 6 5 5 5 5 5 5 5 6 6 7 7 8 8 8 9 9 8 8 8 8 8 8 8 9 9
8 8 8 8 8 8 7 7 7 7 8 8 8 8 8 8 8 8 8 8 8 8 8 8 7 7 8 8 8 9 9 9 9 9 9 9 9 8 8 8 8 9 9
10 10 10 10 9 9 9 9 10 10 10 10 10 10 10 9 9 10 10 10 10 10 9 9 9 9 9 9 10 10 10 10 10 10 10 10 10 9 9 9 9 9 9
11 11 11 11 12 12 12 13 13 12 12 12 12 11 11 11 11 11 10 10 10 10 11 11 10 10 10 10 10 11 11 11 10 11 11 11 11 11 11 11 10 10 10
13 13 13 14 15 15 15 14 14 14 14 13 13 13 13 13 12 12 12 11 11 11 11 11 11 11 11 11 11 11 11 12 12 12 12 12 12 12 12 12 11 11 11
15 16 16 16 16 16 15 15 15 15 14 14 14 14 13 13 13 13 13 12 12 12 12 12 12 12 12 12 12 12 12 12 13 13 13 13 13 13 13 13 13 12 12
16 17 16 16 16 16 15 15 14 14 14 14 13 13 13 13 14 14 14 13 13 13 12 12 12 12 12 13 13 13 13 13 13 14 14 14 14 14 14 14 14 14 13
16 16 16 16 15 15 14 14 14 14 14 14 14 13 13 13 13 13 13 13 13 13 13 13 13 13 13 14 14 14 14 14 15 15 15 15 15 15 15 15 15 15 15
15 15 15 15 15 14 14 14 14 14 14 14 14 14 14 13 13 13 13 13 13 13 14 14 14 14 14 15 15 15 15 16 16 16 16 16 16 16 16 16 17 17 17
15 14 14 14 14 14 14 14 14 14 14 14 13 13 13 13 13 13 13 13 13 13 13 14 14 15 15 15 16 16 17 17 17 18 18 18 18 18 18 19 19 19 19

GEFSGL_500_meanwind_114.txt.gz
Wind_Speed
25 24 24 25 25 25 25 25 25 26 25 26 25 26 26 26 26 25 25 26 26 26 27 27 27 28 28 29 28 27 27 28 29 30 30 30 30 30 31 31 31 33 34
24 23 23 23 24 24 25 25 25 25 25 25 25 25 25 25 25 25 25 25 24 24 25 26 26 27 27 27 27 26 26 27 28 29 29 28 29 29 30 31 32 33 34
23 23 23 23 23 23 23 23 22 23 23 23 23 24 24 23 23 24 24 24 24 23 24 25 25 26 26 25 25 25 25 25 26 27 28 28 29 29 30 30 31 32 33
23 23 23 23 22 21 21 21 22 22 22 22 22 23 23 22 22 23 22 22 22 22 23 23 23 22 22 22 23 23 23 23 24 25 25 27 27 28 29 29 30 30 31
22 22 22 22 21 21 21 21 20 20 20 20 20 20 21 21 21 21 20 20 20 20 20 20 19 19 19 20 21 21 22 22 23 24 24 25 25 26 27 27 27 28 29
21 20 20 20 19 19 20 20 19 18 17 17 17 17 18 17 17 18 18 17 17 17 17 17 18 18 18 18 19 20 21 21 21 21 22 23 24 24 24 25 26 26 27
19 19 18 18 17 17 18 18 17 17 16 16 16 15 14 15 15 15 15 16 16 16 16 16 17 17 17 17 18 18 18 19 20 20 21 22 22 22 23 24 24 24 24
18 17 17 16 16 16 16 16 16 16 15 15 15 15 14 14 14 13 13 13 13 13 14 14 15 15 16 16 16 17 17 18 18 18 18 19 19 20 21 21 21 22 22
15 15 15 15 14 15 14 14 14 14 14 13 13 13 12 12 12 11 11 11 11 11 11 12 12 12 12 13 14 15 15 16 15 16 16 17 18 18 18 18 18 18 18
13 13 13 13 13 12 12 11 11 11 11 11 11 10 10 9 9 9 9 9 9 9 10 10 10 10 11 11 12 13 13 14 14 15 15 16 16 16 16 16 16 16 17
11 11 11 11 10 9 9 8 8 8 8 8 8 8 7 7 6 7 7 7 7 8 8 8 9 9 9 10 11 12 12 13 13 13 14 14 14 14 14 15 15 15 15
10 9 8 8 7 6 5 6 6 6 5 5 5 5 5 5 5 5 5 5 6 6 6 7 7 8 9 9 10 11 11 11 11 12 12 12 12 13 13 13 14 14 14
7 5 5 4 4 4 4 3 3 3 3 2 2 2 2 3 3 3 4 4 4 4 5 5 6 7 8 8 9 9 9 9 10 10 10 10 10 11 12 12 13 13 14
3 3 2 2 2 1 1 1 1 1 1 1 1 1 2 2 3 3 3 3 3 4 4 5 6 6 6 7 8 8 9 9 9 9 9 9 10 10 11 12 12 13 13
1 1 1 2 3 3 3 3 2 2 2 2 2 3 3 3 3 3 2 3 3 4 4 5 5 5 6 6 7 8 8 9 9 9 9 9 10 10 11 11 11 12 12
2 3 4 4 4 4 4 5 4 4 4 4 3 4 5 5 5 5 5 5 5 5 5 5 6 6 7 8 8 9 9 9 10 10 10 11 11 11 11 11 11 11 12
5 6 6 6 6 6 6 6 6 6 6 5 6 6 6 7 7 7 8 8 8 8 7 7 8 8 9 10 10 10 10 11 11 11 12 12 12 12 12 12 12 12 13
6 6 7 7 7 8 8 8 8 8 8 8 8 8 9 9 10 10 10 10 10 10 10 10 11 11 11 11 12 12 13 13 13 13 13 13 13 13 13 14 14 14 14
8 8 9 9 9 9 9 10 10 10 11 11 12 12 12 12 12 12 12 12 12 12 12 12 12 12 13 13 13 14 14 15 14 14 14 14 14 15 15 15 15 15 15
10 10 10 11 11 11 11 12 12 13 13 14 14 14 14 14 14 14 14 14 14 14 14 14 13 13 14 14 14 15 15 15 16 16 16 16 16 16 16 17 17 17 17
11 11 12 12 12 13 13 13 14 14 15 15 15 16 16 16 15 16 15 15 15 15 14 14 15 15 15 15 15 15 15 16 16 16 16 17 18 18 18 18 19 19 19
11 12 13 13 13 13 14 14 14 15 15 16 16 16 16 16 16 16 15 15 15 15 15 15 15 15 15 15 16 16 16 16 16 17 17 18 18 19 19 19 20 20 20
12 13 14 14 14 14 14 14 15 15 15 15 16 16 16 16 16 16 15 15 15 15 15 15 15 15 16 16 16 16 16 17 17 18 18 19 19 20 20 20 20 21 21
13 13 14 14 14 14 14 14 14 14 15 15 15 15 15 15 15 15 15 15 15 15 15 15 15 16 16 16 17 17 17 18 18 19 19 20 20 21 21 22 23 23 23
12 13 13 13 13 13 13 14 14 14 14 14 14 15 15 15 15 15 15 15 15 15 15 15 16 16 16 17 17 17 18 18 19 20 20 21 21 22 23 24 24 25 25
12 12 12 12 12 13 13 13 13 13 13 13 13 14 14 14 14 14 14 14 15 15 15 15 16 16 16 17 17 18 18 19 20 21 22 22 23 24 24 25 26 27 27

GEFSGL_500_meanwind_120.txt.gz
Wind_Speed
25 25 25 25 25 25 25 25 25 25 25 25 24 23 22 22 21 21 21 20 21 21 21 21 21 21 21 21 22 22 23 23 25 25 26 26 27 27 28 28 28 27 27
25 25 25 25 24 24 24 25 24 24 24 24 23 22 22 21 21 22 21 21 20 20 20 19 19 19 19 20 21 21 22 22 22 22 23 24 24 25 25 25 25 25 25
24 24 24 24 23 23 23 23 23 22 22 22 22 21 21 20 21 21 21 20 19 19 19 19 18 18 19 18 19 20 19 20 20 21 22 22 22 22 22 23 24 25 25
23 23 22 22 22 22 21 21 21 21 21 20 20 19 19 19 19 19 19 19 19 19 18 18 18 17 17 17 17 17 18 18 18 19 19 20 20 20 22 23 24 24 25
22 21 21 21 20 20 20 20 19 19 18 18 17 17 17 16 16 17 17 17 17 16 16 16 16 15 15 15 16 16 16 16 16 17 18 18 19 19 20 21 22 23 24
21 20 19 19 19 19 19 18 17 16 15 15 15 16 16 15 15 14 15 15 15 14 14 14 15 14 13 13 14 14 14 14 14 15 16 17 17 18 19 20 21 22 22
18 18 18 17 17 16 16 16 15 15 15 14 14 15 14 14 13 12 11 11 12 12 12 12 12 11 11 11 11 11 12 12 12 14 14 15 16 16 17 18 19 20 20
17 16 16 15 14 14 15 15 14 14 13 13 14 13 12 11 10 10 10 9 9 8 8 8 8 7 8 8 9 10 10 11 11 12 13 13 13 14 14 15 16 16 17
14 14 14 13 13 13 13 13 13 12 12 12 11 11 9 9 8 8 8 7 6 6 6 6 6 5 5 6 6 7 8 9 9 10 10 10 10 11 12 12 13 13 14
12 11 11 11 11 11 11 11 11 10 9 9 8 7 7 6 6 5 4 4 4 4 3 3 3 2 2 3 4 5 6 6 7 7 7 8 9 10 10 10 11 12 12
9 9 8 8 8 8 7 6 6 5 5 5 5 5 4 4 4 4 3 2 2 1 1 0 1 1 1 2 4 4 5 5 5 6 6 7 8 8 9 9 10 11 11
6 5 5 5 5 4 3 3 2 3 3 3 2 2 2 2 2 2 1 1 1 1 1 2 2 2 2 3 4 4 5 5 6 6 6 6 7 7 8 8 9 10 11
4 4 4 3 2 1 1 1 0 1 0 0 1 1 2 2 2 2 2 2 2 3 3 3 3 3 4 4 5 5 5 5 6 6 6 6 7 7 7 8 9 10 10
2 2 2 2 1 2 2 3 3 2 3 3 3 3 3 4 3 3 4 4 5 5 5 5 5 6 7 6 6 6 6 7 7 7 7 7 7 7 8 9 9 10 11
2 3 3 4 4 4 4 4 5 5 5 6 6 6 6 6 6 6 7 8 8 7 7 7 8 8 8 8 8 8 8 9 9 9 9 9 9 10 10 10 11 11 11
5 5 6 6 6 7 7 7 7 7 7 7 8 8 8 8 8 9 10 10 10 10 10 10 9 9 9 10 10 10 10 10 10 10 11 11 12 12 12 12 12 12 13
7 8 8 8 9 9 9 9 9 10 10 10 11 11 11 11 11 12 12 12 12 12 12 11 11 12 12 12 12 12 12 12 12 12 12 13 13 13 13 13 14 14 14
10 10 10 10 10 10 11 11 11 12 12 12 13 13 13 14 14 15 15 14 14 14 13 13 13 13 13 13 13 13 13 14 14 14 14 14 14 14 14 15 15 15 16
12 12 13 13 12 12 13 13 13 14 14 14 14 15 15 16 16 16 16 16 16 15 15 14 14 14 14 14 14 15 15 15 15 15 14 14 15 15 15 16 16 16 17
13 14 14 14 14 14 14 14 15 15 16 16 17 17 17 18 17 17 16 16 16 16 15 15 15 15 15 15 15 15 15 15 15 15 15 15 16 16 16 17 17 17 18
13 14 15 16 16 15 15 16 16 17 17 18 18 18 18 18 17 17 17 16 16 16 16 16 16 16 16 16 16 15 15 15 15 15 16 16 16 17 17 17 18 18 19
14 14 15 15 15 15 16 17 17 17 18 18 18 18 18 18 18 17 17 16 16 16 16 16 16 15 15 15 15 15 15 15 15 15 16 16 16 17 18 18 19 20 20
14 14 14 15 15 16 17 17 17 17 18 18 18 17 17 17 17 17 16 16 16 16 16 16 15 15 15 14 14 14 14 14 15 15 16 16 17 17 18 19 20 20 21
14 14 14 15 15 16 16 16 17 17 17 17 17 16 16 16 16 16 16 16 16 16 15 15 14 14 14 14 14 14 14 14 15 15 16 16 17 18 19 20 21 22 23
13 13 14 14 14 15 15 15 16 15 16 16 15 15 15 15 15 15 15 14 14 14 14 13 13 13 13 13 13 13 14 14 15 16 16 17 19 20 21 22 23 24 25
13 13 13 12 12 13 13 14 14 14 14 14 13 13 13 13 13 13 13 12 12 12 12 11 11 11 11 12 13 13 14 15 16 16 17 18 19 21 22 24 25 26 28

GEFSGL_500_meanwind_126.txt.gz
Wind_Speed
25 26 26 27 27 27 27 27 27 26 26 25 25 25 25 25 25 25 25 25 24 24 24 24 23 23 22 22 22 22 22 23 23 23 24 25 25 26 27 29 30 30 30
24 25 25 25 25 26 26 25 25 24 24 24 24 24 24 24 24 25 24 24 24 24 24 23 23 22 22 21 21 21 22 22 22 21 22 22 23 24 25 26 27 28 29
24 25 25 25 25 25 24 24 23 23 22 22 22 22 22 22 22 23 23 23 23 23 23 22 21 21 21 21 20 20 20 21 21 22 21 21 21 22 23 25 25 26 28
24 24 24 24 24 24 23 23 22 22 22 21 20 19 19 20 20 20 20 20 21 21 21 20 20 20 20 20 20 20 20 20 21 21 21 21 21 22 23 23 24 24 25
23 23 22 22 22 22 22 21 21 20 19 19 18 18 18 18 17 17 17 17 18 19 19 19 19 19 19 19 19 19 19 20 19 20 20 20 20 19 20 20 21 22 22
22 21 21 20 20 20 20 19 18 17 17 16 16 17 16 16 16 16 15 16 17 16 16 16 16 17 17 17 17 17 17 17 18 18 18 17 17 17 18 18 19 20 20
20 20 19 19 18 17 17 16 16 16 15 15 15 15 15 14 14 13 13 13 13 13 13 14 14 13 14 15 15 15 15 16 17 16 15 15 15 16 16 17 17 18 18
18 18 17 16 15 15 15 15 15 14 14 13 13 13 13 12 11 11 10 10 9 9 9 10 10 10 10 11 11 12 13 14 13 13 13 13 14 14 14 15 15 16 17
15 14 14 14 14 13 13 12 12 12 11 10 9 9 9 9 8 8 8 7 7 6 5 5 5 6 6 7 7 7 7 8 8 9 10 10 11 10 11 11 12 12 13
13 12 12 11 11 10 9 8 8 8 8 7 7 7 6 5 5 5 5 4 3 2 1 1 1 1 2 2 2 2 2 3 4 4 5 6 7 7 8 9 9 10 10
10 9 9 8 7 6 6 5 5 5 5 5 5 4 4 3 3 3 2 2 1 1 1 1 1 2 2 3 3 2 2 2 2 2 2 3 4 4 5 6 6 7 8
7 6 6 5 5 4 4 4 3 3 3 3 2 2 3 3 3 2 2 2 2 2 2 3 3 4 5 5 5 5 4 4 4 4 4 4 4 4 4 5 5 6 7
5 4 4 3 3 3 2 2 2 1 1 1 1 2 2 3 3 3 3 3 3 4 4 4 5 5 6 6 6 6 5 5 6 6 5 5 5 5 6 7 8 8 9
3 3 3 3 3 3 2 2 1 1 2 3 3 4 4 4 4 5 5 5 6 6 6 6 6 6 6 7 7 7 7 7 7 7 8 8 7 7 7 8 8 9 9
3 3 3 4 4 4 3 3 3 3 4 5 6 6 7 7 8 8 7 7 7 7 8 8 7 8 8 8 8 8 8 9 9 9 9 9 9 9 10 10 10 11 11
3 4 5 5 5 5 6 6 6 7 7 8 8 9 9 9 9 8 8 8 8 9 8 8 8 9 9 9 10 10 10 11 11 10 11 11 10 10 10 11 11 12 13
5 6 7 8 8 8 9 9 9 10 10 11 11 11 11 11 10 10 10 10 10 9 9 9 10 10 11 11 11 11 11 11 11 11 11 11 11 11 11 12 12 13 13
7 7 8 9 10 10 10 11 11 12 12 12 13 13 13 12 12 12 12 12 12 12 12 12 12 12 11 11 11 11 11 11 12 12 12 12 12 12 13 13 14 14 15
8 9 10 10 11 11 12 12 12 12 13 13 13 14 14 14 14 13 14 14 14 13 13 13 13 12 12 12 12 12 12 12 12 12 12 12 13 13 14 14 15 16 17
10 10 11 11 12 12 13 13 13 14 14 14 14 14 14 14 14 14 14 14 14 13 13 12 12 12 12 11 11 11 12 12 12 12 12 13 13 14 14 15 16 17 19
9 10 10 11 12 12 12 13 13 14 14 14 14 14 13 14 13 13 13 13 13 12 12 11 11 11 10 10 11 11 11 11 11 11 11 12 13 14 15 16 17 18 19
10 11 11 12 13 13 12 12 13 14 14 14 14 14 14 13 13 13 12 12 12 11 11 11 10 10 10 10 10 10 10 10 10 10 11 12 14 15 16 17 18 19 21
10 10 10 11 12 12 12 12 12 12 13 13 13 12 12 12 12 11 11 10 10 10 10 9 9 9 9 9 9 9 9 10 10 11 12 13 15 16 17 18 20 21 23
9 9 9 10 10 10 10 10 10 10 11 11 10 10 10 10 9 9 9 9 8 8 8 8 7 8 8 8 8 8 9 10 11 12 13 15 16 17 18 19 21 23 24
7 8 8 8 8 9 9 9 8 8 8 9 8 8 8 8 8 7 7 7 7 7 6 6 6 6 6 6 7 8 9 10 12 13 15 16 17 19 20 21 23 24 26
6 6 6 7 7 7 7 7 7 7 7 7 7 6 6 6 5 5 5 5 4 4 3 3 4 4 5 6 7 9 10 11 13 14 16 17 19 20 22 23 25 26 28

GEFSGL_500_meanwind_132.txt.gz
Wind_Speed
24 24 24 25 25 25 26 26 26 26 26 26 27 27 27 27 27 27 27 27 27 28 28 28 28 27 27 26 25 25 25 24 24 24 23 23 23 23 23 23 24 26 26
25 25 25 25 25 26 26 26 26 26 26 26 26 26 26 26 26 26 26 26 27 26 26 26 27 27 26 26 25 24 24 24 23 22 22 22 21 21 21 22 22 22 22
25 25 25 25 25 25 25 25 25 25 25 25 24 24 24 24 25 25 25 25 25 25 25 25 26 25 25 24 24 24 23 22 21 21 20 19 19 20 20 21 20 20 21
25 25 25 24 24 24 24 24 24 24 23 23 22 22 22 22 22 22 22 22 22 23 23 24 24 24 23 23 22 21 21 20 20 19 18 18 17 17 18 18 19 18 19
24 24 23 23 23 23 23 22 22 22 21 21 20 20 20 20 20 20 20 20 20 21 21 22 21 21 21 21 20 18 18 18 17 17 16 16 16 16 17 16 16 16 16
22 22 22 22 21 21 21 20 20 19 19 19 18 18 18 18 17 17 17 17 17 18 18 18 17 18 17 17 16 15 15 15 15 15 15 14 15 15 15 15 14 14 14
19 19 19 19 19 18 18 18 18 17 17 16 16 16 16 15 15 14 14 14 14 14 14 14 13 13 13 13 12 13 13 13 13 12 12 13 13 13 12 13 13 13 13
16 16 16 16 16 15 15 14 14 14 13 13 13 13 13 13 12 12 12 11 11 11 11 10 9 8 8 9 10 10 10 10 11 11 11 11 11 11 10 10 10 10 10
13 13 12 12 12 12 12 11 11 11 11 11 11 11 11 10 10 9 8 8 7 7 7 6 6 5 4 4 6 7 7 7 7 7 8 8 8 8 7 7 7 7 8
11 11 10 10 9 9 10 10 10 10 10 9 8 8 7 6 5 4 3 3 2 2 3 2 2 2 2 2 2 2 3 3 3 3 3 3 3 3 4 4 5 5 6
9 9 9 9 8 8 8 7 7 7 7 6 5 5 4 4 3 2 1 1 1 1 1 2 2 2 3 3 3 2 2 2 2 2 1 1 0 1 1 2 3 4 5
8 8 7 7 7 6 6 6 5 4 4 3 3 3 2 3 3 3 2 2 3 3 4 4 4 5 5 5 5 5 5 5 5 4 4 4 3 3 3 3 3 4 5
6 6 5 4 4 4 3 3 3 2 2 2 2 3 3 4 4 4 4 3 4 4 5 5 7 7 7 7 7 7 7 7 6 6 6 5 5 5 5 5 4 5 5
5 4 4 4 3 2 2 2 2 2 2 3 4 4 5 6 6 5 5 5 6 6 7 7 8 8 8 8 8 8 8 7 7 7 7 7 7 7 6 6 6 6 6
4 4 5 5 4 5 5 5 4 4 4 5 6 6 7 7 7 7 7 7 7 8 8 8 9 9 9 9 9 9 9 9 9 9 9 8 8 8 8 7 7 8 8
5 5 5 6 6 6 6 6 6 6 6 7 8 8 9 9 8 8 8 8 9 9 10 10 10 10 10 10 10 10 10 10 11 10 10 9 9 9 8 9 9 9 10
6 6 6 7 7 7 8 8 9 9 9 9 10 10 10 10 9 9 9 10 11 11 11 10 10 10 10 10 10 10 10 10 10 10 10 9 9 9 9 9 10 10 11
7 7 7 8 8 9 9 9 10 10 11 11 12 11 11 11 11 11 11 11 11 11 11 11 10 10 10 10 10 10 10 10 9 9 9 9 9 9 9 10 10 11 11
9 9 9 9 9 9 9 10 10 11 12 12 12 12 11 11 11 11 11 11 11 11 11 10 10 10 10 10 10 10 10 9 9 9 9 9 9 9 9 10 11 12 13
9 10 9 9 9 9 10 10 11 11 11 11 12 12 11 11 11 11 11 11 11 10 10 10 10 10 9 9 9 9 8 8 8 7 7 8 8 9 10 11 11 12 13
9 9 9 10 10 10 10 11 11 10 10 10 11 10 10 10 10 10 10 10 10 9 9 9 9 8 8 7 7 7 7 6 6 7 7 8 8 9 10 11 13 14 15
8 8 9 9 9 9 9 9 9 10 10 10 10 9 9 9 9 9 9 8 8 8 8 8 7 7 6 6 5 5 5 5 5 6 7 8 9 10 12 13 14 16 17
6 7 7 8 8 8 8 9 9 9 9 9 9 9 8 8 8 7 7 7 7 6 6 6 5 5 4 4 4 4 4 4 5 6 8 9 11 12 13 15 16 18 19
5 6 6 6 7 7 7 7 7 7 7 7 7 7 7 6 5 5 5 5 5 4 4 3 3 3 2 2 2 2 3 4 6 7 9 11 12 13 15 16 18 19 21
4 4 4 5 5 5 5 5 6 5 5 5 5 5 4 4 4 4 3 3 2 2 1 1 0 0 1 2 3 4 5 6 8 9 11 13 14 16 17 19 20 22 23
2 2 3 3 3 3 3 3 3 3 3 3 3 3 3 2 2 2 2 2 2 2 2 3 3 4 5 6 7 7 9 10 11 12 14 15 17 18 20 21 23 24 26

GEFSGL_500_meanwind_138.txt.gz
Wind_Speed
25 26 26 26 26 26 26 25 24 24 25 25 25 24 24 25 25 25 25 26 26 26 26 25 25 25 25 25 25 25 24 24 24 23 22 21 21 20 20 19 20 20 20
26 26 26 27 26 26 26 25 25 25 25 25 25 24 24 24 24 24 24 24 25 25 25 25 25 25 24 24 24 23 22 22 22 21 21 20 19 18 18 18 18 18 18
26 26 26 26 25 24 24 24 24 24 24 24 24 23 23 22 22 23 23 23 22 22 23 23 23 23 23 22 22 22 22 21 20 20 19 18 18 17 17 17 17 16 16
26 25 25 24 24 24 24 23 23 22 22 23 22 22 21 21 21 21 21 21 21 20 21 21 21 21 21 21 20 20 20 19 19 18 17 17 16 16 16 15 15 14 14
25 25 24 24 23 23 23 22 21 21 21 21 21 20 20 20 19 19 19 18 18 19 19 18 19 19 19 18 18 18 17 17 16 16 15 15 14 14 14 14 13 12 12
23 23 22 22 22 22 21 20 19 20 20 20 19 19 19 18 17 16 16 16 16 16 16 17 17 16 15 15 16 16 15 15 15 13 13 12 12 12 12 11 10 9 9
21 21 20 20 20 19 18 18 18 18 18 18 17 17 16 15 15 15 15 14 14 14 14 14 14 14 13 13 13 13 13 13 13 13 13 12 10 10 9 8 8 7 7
18 17 17 16 16 16 16 16 15 14 14 14 14 14 13 12 12 12 11 12 12 12 11 11 10 10 10 10 11 11 11 11 11 12 11 11 10 9 8 7 6 6 6
14 14 14 13 13 14 14 13 12 12 11 10 10 10 9 8 8 7 7 7 7 7 7 7 7 6 6 6 7 8 8 8 9 8 7 7 7 6 6 5 5 4 4
12 12 12 11 12 12 11 10 10 9 9 8 7 7 6 6 5 5 5 4 4 3 3 2 2 3 3 3 3 3 3 4 4 3 4 5 5 4 4 3 3 3 3
9 9 9 9 9 9 8 8 7 7 6 5 5 4 4 3 3 2 1 1 2 2 1 1 0 0 1 1 1 1 1 1 1 1 2 3 3 3 3 2 2 2 2
8 8 7 7 7 7 6 6 5 4 3 3 3 2 2 1 1 2 2 2 3 3 3 2 2 3 3 3 2 3 3 2 3 2 2 2 2 2 1 0 1 2 3
7 7 6 6 6 6 5 3 2 1 2 2 1 0 1 2 3 3 3 4 4 4 4 4 4 5 5 5 5 5 4 4 4 4 4 4 3 3 2 2 2 2 2
7 8 6 5 5 4 4 3 2 2 2 3 2 2 2 3 4 4 4 4 4 4 5 5 5 6 6 6 7 7 7 6 6 6 6 5 4 4 3 3 3 3 4
7 7 7 6 6 5 4 4 4 4 3 3 4 4 4 4 5 4 4 5 6 6 6 6 7 7 7 7 7 7 7 7 7 7 7 6 6 5 5 4 4 5 5
8 8 7 7 6 6 6 5 6 6 6 6 6 6 6 6 5 5 5 6 6 6 7 7 8 8 9 9 8 8 8 8 8 7 7 7 6 6 6 6 6 6 6
8 8 7 7 7 7 7 7 7 7 7 7 7 7 6 5 5 6 6 6 7 7 7 7 8 8 8 8 8 8 7 7 7 6 6 6 6 6 7 7 7 7 8
9 9 8 7 7 7 7 7 7 7 7 7 6 6 6 6 7 7 7 7 7 7 7 7 7 7 7 7 7 7 7 7 6 6 6 6 6 6 6 7 8 8 9
10 9 9 8 8 7 7 7 7 8 8 7 7 7 7 7 7 7 7 7 6 6 7 7 7 6 6 7 7 6 6 5 5 5 5 5 5 5 6 7 8 9 9
10 10 9 8 8 8 7 7 7 7 7 7 7 7 7 7 6 6 6 6 6 6 6 6 6 6 6 6 5 4 4 4 4 4 4 4 4 5 6 7 8 9 11
9 9 9 9 8 8 7 7 7 6 6 6 6 6 6 6 5 5 5 5 5 4 4 4 4 4 4 3 3 3 3 2 2 3 3 4 4 6 7 8 10 11 13
8 8 8 8 8 8 7 7 6 6 6 5 5 5 5 4 4 4 3 3 3 3 2 2 1 1 1 1 2 2 2 3 3 4 4 6 7 8 9 11 13 14 15
6 6 6 6 7 7 6 6 6 5 5 4 4 4 3 3 2 2 2 2 2 1 1 1 1 1 2 3 4 4 5 5 6 7 8 9 10 11 12 14 15 17 18
4 5 5 5 5 5 5 5 4 4 3 3 2 2 2 2 1 1 0 0 1 2 2 3 3 4 5 6 6 7 8 9 10 11 12 13 14 15 16 17 18 20 21
4 4 4 4 4 4 3 3 2 2 2 1 1 0 0 1 1 1 2 3 3 4 5 5 6 7 8 9 10 11 11 12 14 14 15 16 17 18 19 20 22 23 24
4 4 4 4 4 3 3 3 2 2 2 2 2 2 3 4 4 5 5 6 7 8 8 9 10 11 12 12 13 15 16 17 17 18 19 20 21 22 23 24 26 27 27

GEFSGL_500_meanwind_144.txt.gz
Wind_Speed
25 25 24 24 25 25 25 24 24 23 22 22 21 21 21 21 21 21 21 21 22 22 22 22 23 23 23 23 23 23 23 23 22 22 21 21 20 20 20 20 20 20 19
25 25 24 24 24 24 24 23 23 22 22 21 20 20 20 20 19 19 20 20 20 21 21 21 21 21 22 22 22 22 22 21 20 20 20 20 19 18 18 17 17 18 18
24 24 24 24 23 23 22 22 21 21 20 20 20 19 19 19 19 18 18 18 18 19 19 19 19 19 20 20 20 20 20 20 20 19 19 17 17 16 16 16 16 16 16
24 23 23 23 22 22 21 21 20 20 19 19 18 17 17 18 18 17 17 17 17 16 16 16 16 17 17 18 18 18 18 18 18 18 18 17 17 16 16 16 15 15 15
21 21 22 22 21 21 20 19 19 18 18 17 17 16 16 16 15 15 15 15 15 15 15 15 14 14 14 15 15 16 16 16 16 16 16 16 15 15 15 14 14 14 13
20 21 21 20 19 18 17 17 16 16 15 15 15 15 14 14 13 13 13 13 14 14 14 14 14 13 12 12 13 14 15 15 15 15 15 15 14 14 13 14 13 12 12
19 18 17 16 16 15 15 15 15 15 13 13 13 12 12 12 11 11 12 12 11 11 12 12 12 11 11 11 12 12 12 13 13 13 13 13 13 12 13 12 12 11 10
16 14 13 12 12 12 12 13 12 11 11 10 9 9 9 9 9 9 9 8 8 9 9 9 9 9 9 9 9 10 10 11 11 11 11 11 12 12 11 10 9 9 9
12 11 10 9 9 9 9 9 8 8 8 7 7 7 6 6 7 7 6 5 6 6 6 7 7 7 7 7 7 7 8 8 9 9 9 9 10 10 10 10 8 8 7
10 9 8 8 8 8 7 6 6 6 6 5 5 4 4 4 4 4 3 3 3 3 4 4 5 5 4 4 5 6 6 7 7 7 7 7 8 8 7 8 7 7 7
8 7 7 7 7 6 5 4 4 4 3 3 2 2 2 2 1 1 1 0 0 1 1 1 2 3 2 2 3 3 4 5 5 5 5 5 5 5 6 6 6 6 5
7 6 6 6 5 4 4 4 4 3 3 2 1 1 1 1 1 1 1 1 1 1 1 1 1 1 1 2 2 2 3 3 3 3 3 3 4 4 4 5 5 4 4
6 5 5 5 5 4 3 3 3 2 2 2 3 2 2 2 2 1 1 2 2 2 3 3 3 3 3 3 3 3 3 3 3 4 3 3 3 3 3 3 4 4 3
7 6 5 5 4 4 4 4 4 4 4 3 4 4 4 3 2 3 3 4 4 4 3 3 3 3 3 3 3 4 4 4 4 4 3 3 3 3 3 3 2 3 2
7 6 6 6 5 6 6 5 5 4 4 4 4 4 4 4 4 4 4 4 4 4 3 3 4 5 4 4 4 5 5 5 5 4 4 3 3 3 3 2 1 1 2
8 8 7 7 7 6 6 6 5 5 4 4 4 4 4 4 4 4 4 4 4 4 4 4 4 5 5 5 5 5 4 4 4 4 4 3 3 2 1 0 1 2 3
10 9 8 8 7 7 6 6 5 5 5 5 4 4 3 4 4 4 4 4 4 4 4 5 5 5 5 4 4 4 4 4 4 3 2 2 1 1 0 1 2 4 5
10 9 8 8 7 6 6 5 5 5 5 4 4 4 4 4 4 4 4 4 4 5 5 5 5 4 4 4 4 3 3 2 2 1 1 1 1 1 2 3 4 5 6
10 9 9 8 7 6 6 6 5 5 5 4 4 4 4 4 4 4 4 3 4 4 4 3 3 3 3 3 2 1 1 1 1 1 2 2 3 3 4 5 6 7 8
9 9 8 8 8 7 6 5 4 4 3 3 3 2 3 3 3 3 3 2 2 2 2 2 1 1 1 1 1 1 2 2 3 3 4 5 5 6 6 7 8 9 10
8 8 8 8 8 7 6 5 4 4 3 3 2 2 2 2 2 2 1 1 0 0 1 1 2 2 2 3 3 4 4 5 6 6 7 8 8 9 10 11 12 13 14
8 8 8 8 8 7 6 6 5 4 3 3 2 1 1 0 0 1 1 2 2 2 3 3 4 4 5 5 6 7 7 8 9 9 10 11 11 12 13 14 15 16 17
6 7 7 8 7 7 7 6 5 4 3 3 2 2 2 2 2 2 3 3 4 5 6 6 7 7 8 8 9 10 11 11 12 12 13 14 15 16 17 18 19 20 21
6 6 6 7 7 7 6 6 5 4 3 3 3 3 3 3 4 5 5 6 7 8 8 9 10 10 11 12 13 13 14 14 15 16 17 18 19 19 20 21 22 23 25
6 7 7 7 6 6 6 6 6 5 5 5 5 5 6 6 7 7 8 9 10 11 11 12 13 14 15 15 16 16 17 18 19 20 21 21 22 23 24 25 26 27 28
7 7 8 8 8 8 7 7 7 7 7 8 8 8 9 9 10 11 11 12 13 14 15 15 16 17 18 19 20 20 21 22 22 23 24 25 25 27 28 29 30 31 31

GEFSGL_500_meanwind_150.txt.gz
Wind_Speed
26 27 27 27 27 27 27 27 27 26 26 26 24 24 24 24 23 23 23 23 22 21 21 21 21 22 23 24 24 24 25 25 24 24 24 23 23 23 23 24 24 24 24
27 27 27 27 26 26 26 25 25 25 25 25 24 24 23 22 21 21 21 21 21 21 21 20 19 20 21 21 22 23 23 23 23 23 23 23 22 22 23 23 23 23 22
26 26 26 26 25 25 25 25 24 24 23 23 23 21 20 20 20 20 20 20 20 19 19 18 18 18 19 20 20 20 21 21 21 22 22 22 22 22 21 21 21 21 20
24 23 24 24 24 24 24 24 23 23 23 22 21 20 19 18 19 19 18 18 17 17 17 16 16 17 18 19 19 19 19 19 20 20 21 21 21 21 20 20 20 20 20
23 23 23 23 23 23 22 21 20 19 19 19 19 18 17 16 17 16 16 15 15 15 15 15 15 16 16 16 16 16 17 18 18 18 18 19 20 20 19 19 19 18 18
20 20 20 20 20 20 19 18 17 16 16 16 15 15 15 15 15 15 15 14 13 13 13 13 14 14 14 14 14 15 15 16 16 17 17 17 18 18 18 18 18 18 17
18 18 18 17 16 16 15 14 13 13 13 12 12 11 11 12 12 12 11 11 11 11 12 12 12 12 12 13 14 14 14 14 15 15 16 16 16 17 17 17 16 16 16
16 16 16 15 14 13 13 11 11 10 10 9 9 9 9 9 9 9 9 9 9 9 9 9 10 10 11 11 12 13 13 13 13 13 14 14 14 15 15 15 15 15 15
15 15 14 13 12 11 10 9 9 9 8 8 8 7 7 7 7 7 7 7 7 7 7 8 8 8 9 9 10 10 11 11 10 10 11 11 11 12 12 13 13 13 13
13 12 11 11 10 9 8 8 8 8 7 7 6 6 5 5 5 5 5 5 5 6 6 7 7 7 7 7 7 7 8 8 9 9 9 9 10 10 10 10 10 10 11
11 10 9 9 8 7 7 8 7 6 6 6 5 4 4 3 3 3 3 3 4 5 6 7 6 6 5 5 6 6 6 6 7 8 8 8 8 8 7 7 8 8 8
11 10 9 8 7 7 7 7 7 6 6 6 5 4 2 2 1 2 2 3 3 4 4 4 4 4 3 3 4 5 5 5 6 6 6 6 6 6 6 6 7 7 7
10 9 9 8 7 7 7 7 7 6 5 5 5 4 2 2 2 1 2 2 3 3 4 4 3 2 2 2 2 3 4 5 5 5 5 5 5 5 5 6 6 6 6
10 9 9 8 7 7 7 7 7 7 6 5 4 4 3 2 3 3 3 3 3 4 4 4 3 2 2 2 1 1 2 3 3 4 4 4 4 4 5 5 6 6 7
11 10 9 8 8 8 8 8 8 8 7 6 5 4 3 3 3 4 4 3 3 3 3 3 3 3 3 2 2 1 1 2 3 3 4 4 5 5 5 6 6 7 8
11 11 10 10 9 8 8 8 8 8 8 7 6 6 5 4 4 4 4 4 3 3 4 4 3 3 3 2 2 1 1 1 2 2 3 4 5 5 6 6 7 8 8
11 11 11 10 10 8 8 8 8 8 8 8 7 7 6 6 5 4 4 4 4 4 4 4 4 3 3 2 2 2 2 2 2 3 4 5 5 6 7 7 8 8 9
11 11 11 11 11 10 8 8 8 8 8 7 7 7 6 6 5 5 5 5 4 4 4 5 5 4 4 3 3 4 4 5 5 5 6 7 7 8 8 9 9 10 11
10 11 11 11 11 11 10 9 8 8 8 8 7 7 6 6 5 5 5 5 5 5 5 5 5 6 6 5 6 6 8 8 9 9 9 9 9 10 10 11 11 12 13
10 11 11 11 11 11 11 10 9 9 8 8 8 8 7 7 7 6 6 6 6 6 6 6 7 7 7 7 8 9 10 10 10 10 10 11 12 12 13 13 14 15 16
10 10 11 11 11 11 11 11 11 10 9 8 8 8 8 8 8 8 8 8 8 8 8 8 9 9 9 9 9 10 11 12 13 13 14 14 15 15 16 17 17 18 19
10 10 11 11 11 12 12 12 11 11 10 9 9 9 8 9 9 9 10 10 10 10 10 11 11 12 13 13 13 14 15 15 16 17 17 17 18 19 19 20 21 22 22
9 10 11 11 11 12 12 12 12 11 11 11 10 10 10 10 11 11 11 12 12 13 13 14 14 14 15 16 17 17 18 18 19 19 20 21 21 22 23 23 24 25 26
10 10 11 11 12 13 13 13 13 13 12 12 12 12 12 12 13 13 14 14 15 15 16 16 17 17 18 19 19 20 21 21 22 23 23 24 24 25 26 27 28 28 29
10 11 11 12 13 13 14 14 14 14 14 14 13 14 15 15 15 16 16 17 17 17 18 19 19 20 21 21 22 23 23 24 25 26 27 28 28 29 30 30 31 32 33
11 12 13 13 14 14 15 15 16 16 16 15 16 16 16 17 17 18 18 19 19 19 20 21 22 22 23 24 25 26 27 28 28 29 30 31 31 31 32 33 34 34 35

GEFSGL_500_meanwind_156.txt.gz
Wind_Speed
25 26 26 26 26 25 25 25 25 25 25 25 24 24 23 23 22 22 22 22 22 23 23 22 21 21 22 22 22 22 22 23 22 23 23 24 24 23 23 22 23 23 23
25 25 25 25 25 25 25 25 25 25 24 24 24 23 23 22 22 21 21 21 20 20 21 21 21 20 20 20 20 21 22 22 22 22 22 23 23 23 22 22 21 21 21
24 24 24 24 24 24 24 24 24 24 23 23 23 22 22 21 21 21 21 20 19 19 19 19 19 19 19 19 19 20 20 20 20 21 21 21 21 22 22 22 21 21 21
24 23 23 22 23 23 22 22 21 21 21 20 20 20 20 19 19 19 18 18 18 18 17 17 18 18 18 18 18 18 18 19 19 19 19 19 20 20 21 21 21 20 20
22 21 21 21 21 21 21 20 20 19 19 18 18 18 17 17 17 17 16 16 16 15 15 14 15 15 15 16 17 17 17 18 18 18 18 19 19 19 19 20 20 20 20
20 19 19 19 19 19 18 17 17 17 16 16 16 15 15 14 14 15 14 13 12 12 13 13 13 13 14 14 15 16 16 16 16 17 17 18 18 18 17 18 18 19 19
19 18 17 17 16 16 16 15 14 14 14 14 13 12 12 13 12 11 11 11 12 12 11 10 11 11 12 12 13 14 15 15 15 15 15 15 16 16 16 17 17 17 17
17 16 16 15 14 13 14 13 13 13 13 12 11 10 10 10 9 8 8 8 9 10 9 8 9 9 10 10 10 11 12 13 14 14 13 13 14 15 15 16 16 17 17
16 15 14 13 12 12 12 12 11 11 10 10 10 10 9 8 7 7 6 6 7 6 6 6 7 7 8 8 8 9 10 11 11 12 12 12 12 13 13 14 14 15 15
14 13 12 11 10 10 10 10 9 9 9 9 8 8 7 6 6 5 4 4 5 4 4 5 6 6 5 7 7 8 9 10 10 10 11 11 11 11 12 12 12 12 13
12 11 11 9 8 8 8 8 8 8 8 8 8 7 6 5 4 3 3 3 3 4 4 4 4 4 5 5 6 7 7 8 8 8 9 9 10 11 11 11 11 11 12
10 10 10 9 8 8 7 8 8 7 7 7 7 7 6 5 4 3 3 4 4 4 4 4 4 4 3 4 5 5 6 7 7 8 8 9 9 9 10 10 10 11 11
9 10 9 9 8 7 7 8 8 8 8 8 7 7 7 6 5 4 4 4 5 4 5 4 5 4 4 4 5 5 5 5 6 7 7 8 9 9 10 10 10 11 11
9 9 9 8 8 7 7 8 8 8 8 8 7 7 7 6 6 5 5 5 5 5 5 5 5 5 6 6 6 6 6 6 6 7 7 8 8 9 9 10 10 11 12
9 9 9 9 9 9 9 9 9 8 8 8 8 7 7 7 6 6 6 5 5 5 6 6 6 6 6 6 7 7 7 8 8 8 8 8 9 9 10 10 11 12 13
9 9 10 10 10 10 10 9 9 9 9 8 8 8 8 7 6 6 6 6 6 6 6 6 6 6 6 6 7 7 8 8 8 9 10 10 10 10 11 11 12 13 14
8 9 10 10 11 11 11 10 9 9 9 9 8 8 8 7 7 6 6 7 7 7 7 7 7 7 7 8 7 8 8 8 9 10 11 11 11 12 12 13 14 15 15
8 9 10 10 10 10 10 11 11 10 10 10 9 9 9 8 8 8 8 8 8 8 8 8 8 8 9 8 8 9 10 11 11 12 12 12 13 14 15 16 16 17 17
8 9 10 10 11 11 11 11 11 11 10 10 10 10 10 10 10 10 10 10 10 9 9 9 9 9 10 10 10 11 12 12 13 14 15 15 16 16 17 18 18 19 19
9 10 10 10 11 11 11 11 11 11 11 11 11 11 11 12 12 12 11 10 10 10 10 10 11 11 12 12 13 13 14 15 15 16 16 17 17 18 19 20 20 21 22
9 9 10 10 11 11 12 12 12 12 12 12 13 13 13 13 12 12 12 11 11 11 11 12 13 13 14 15 15 16 17 17 18 19 19 20 20 21 22 22 23 24 25
9 9 10 10 11 11 12 12 12 13 13 14 14 14 14 13 12 12 13 13 13 13 13 13 14 15 16 17 17 18 19 20 21 22 23 24 25 25 26 26 26 27 28
9 10 10 10 11 12 13 13 14 14 15 15 15 15 14 14 14 14 14 14 15 15 15 16 16 17 18 18 19 20 20 21 23 24 25 26 26 27 28 29 29 30 31
9 10 10 11 12 13 13 14 15 15 15 16 16 16 15 15 15 15 15 16 16 17 17 18 19 19 20 21 21 22 23 24 24 26 27 28 29 30 31 31 32 33 33
10 11 12 12 12 13 15 16 16 16 16 16 17 17 17 17 17 17 18 18 19 20 20 20 21 22 22 22 23 24 24 25 27 28 28 29 30 31 32 33 33 34 35
11 12 12 13 13 14 16 17 17 18 18 18 18 19 19 19 19 20 20 21 22 22 22 23 23 24 25 25 26 27 28 28 29 30 31 31 32 33 33 34 34 35 35

GEFSGL_500_meanwind_162.txt.gz
Wind_Speed
26 26 26 26 25 25 25 25 25 24 24 24 24 24 23 23 24 24 24 24 24 23 23 24 23 23 23 23 23 22 22 22 22 22 23 23 23 22 22 23 23 23 22
25 24 24 25 25 25 25 25 24 24 23 24 24 24 24 24 24 24 23 23 23 23 23 23 22 22 22 22 22 21 21 21 22 22 22 22 22 22 22 21 21 21 20
23 23 24 24 24 24 24 23 23 23 23 23 23 23 23 23 23 23 22 21 21 22 22 22 22 21 21 21 20 20 20 21 21 21 20 20 21 21 20 20 20 20 20
22 22 23 23 22 22 22 21 22 22 21 22 21 21 21 22 21 21 21 20 20 20 20 20 20 20 19 19 20 20 20 20 19 19 19 19 19 19 19 19 20 20 21
21 21 22 22 22 21 20 20 20 20 20 19 18 18 19 19 19 19 19 19 18 18 18 17 17 17 17 18 18 18 18 18 18 17 18 18 19 18 18 18 18 19 19
20 21 22 22 21 20 19 19 18 18 18 17 17 17 17 17 17 17 17 17 16 16 15 15 15 15 15 16 16 16 16 16 16 17 17 17 17 17 17 17 17 18 18
20 20 21 20 19 17 17 18 17 17 17 17 16 17 17 16 15 15 14 14 14 13 13 13 13 13 13 13 13 13 14 15 16 16 16 16 16 15 16 16 16 17 17
19 20 20 18 17 16 16 15 15 16 16 16 16 16 15 15 14 14 13 12 11 11 11 12 11 11 11 12 12 12 12 13 13 14 14 15 14 14 14 15 15 15 16
18 18 18 17 16 15 15 15 14 14 14 14 14 14 13 13 13 12 12 10 10 10 10 10 10 10 9 9 10 10 10 10 10 11 12 12 12 12 12 12 13 13 14
16 17 16 15 15 14 14 14 13 13 13 13 14 14 13 12 12 12 10 10 10 10 10 9 9 9 8 8 9 9 10 10 11 10 11 11 11 11 10 12 13 13 13
14 15 15 14 14 14 13 12 12 12 12 13 13 13 12 12 12 12 11 11 11 11 10 9 9 8 9 9 9 8 9 10 10 11 10 10 10 10 11 11 12 12 13
13 14 14 13 13 12 11 11 12 12 12 12 13 13 12 13 12 12 11 11 10 10 10 10 10 9 9 9 9 9 9 9 10 10 10 11 11 10 11 11 11 12 13
12 13 13 12 12 12 12 12 12 12 12 13 13 13 14 13 13 13 12 11 11 10 10 10 10 10 9 9 9 9 9 9 9 9 10 11 11 12 12 12 12 12 13
12 12 12 12 12 12 12 13 13 13 13 13 14 14 14 13 13 13 12 11 11 11 11 10 10 10 10 10 9 10 10 9 10 10 11 12 12 13 14 14 14 14 15
10 11 12 12 12 12 13 13 13 13 14 14 14 14 14 14 14 13 13 12 11 11 12 11 11 11 11 11 11 11 11 12 12 12 12 12 13 14 15 16 16 16 16
10 11 12 12 12 13 13 13 14 14 14 15 15 15 15 16 15 14 13 13 13 13 13 12 12 11 12 11 11 11 11 12 12 13 14 14 15 15 16 17 18 18 18
10 11 12 13 14 14 14 14 14 15 15 15 15 15 16 16 16 15 14 14 14 14 14 13 13 13 12 12 12 12 12 13 13 13 14 15 16 16 17 18 18 19 20
10 11 12 13 14 14 14 14 14 15 16 16 16 16 16 16 16 15 15 15 15 15 15 15 14 14 13 13 14 14 14 15 15 16 16 17 18 18 18 19 20 21 22
10 11 12 13 13 14 14 14 15 15 16 16 16 16 17 16 16 16 16 16 15 15 15 15 15 15 15 16 16 16 17 17 18 18 19 20 21 22 22 22 23 24 24
10 11 12 12 13 14 14 15 16 17 17 17 17 18 18 17 17 17 17 16 16 16 16 16 16 16 17 17 17 18 19 19 19 20 21 22 23 24 24 25 26 26 27
10 11 11 12 13 14 15 16 17 18 18 18 18 19 18 19 19 19 18 18 18 18 17 17 18 18 19 19 19 19 19 20 21 22 23 24 24 25 26 27 28 28 29
10 11 12 12 13 15 15 16 17 18 19 19 19 19 19 20 20 20 20 20 19 20 20 20 20 20 20 20 20 20 20 22 23 24 25 26 27 28 29 30 31 32 32
11 12 12 13 14 15 16 17 18 19 19 19 20 20 20 21 21 21 22 22 22 22 22 22 22 22 22 23 22 23 24 25 26 27 27 28 29 30 31 31 32 33 33
12 12 13 14 15 16 17 19 19 19 20 21 21 21 22 22 23 23 23 23 23 24 24 24 24 24 25 26 26 27 27 28 28 29 30 31 32 32 32 33 33 34 34
12 13 14 15 16 17 18 19 20 21 21 22 22 23 23 24 24 24 24 25 25 26 26 26 26 27 27 28 29 30 30 30 31 32 32 32 33 33 32 32 33 33 33
13 14 15 16 17 18 19 20 21 21 22 23 24 24 25 25 25 26 27 27 27 28 29 29 29 30 30 30 31 31 32 33 33 33 33 33 33 33 33 33 34 34 34

GEFSGL_500_meanwind_168.txt.gz
Wind_Speed
24 24 23 23 23 23 23 23 23 22 22 22 21 21 20 20 20 19 19 19 19 19 20 20 21 22 23 23 23 23 23 24 24 24 24 24 23 23 24 25 25 25 25
23 23 22 22 22 22 22 22 22 22 21 21 21 20 20 19 19 19 18 18 18 19 20 20 21 21 22 22 23 23 22 23 23 23 24 24 23 24 24 24 24 24 25
22 22 20 21 21 21 21 21 21 21 21 21 20 20 20 19 19 18 18 18 18 19 20 20 20 21 21 21 21 21 21 21 22 22 23 23 23 23 24 24 24 23 23
21 20 19 20 20 20 20 21 21 20 20 20 19 19 19 18 18 18 18 19 19 19 18 17 18 18 18 18 19 19 20 20 21 21 21 22 23 22 22 23 23 22 22
20 19 19 19 19 19 19 19 19 18 18 18 18 17 17 17 17 17 17 18 17 17 17 17 17 16 16 17 17 17 17 18 18 19 19 20 20 20 21 21 22 22 22
19 18 18 18 17 17 17 17 16 15 16 16 16 16 16 16 16 16 16 16 16 16 16 15 16 15 15 15 15 15 15 16 16 17 17 17 17 18 19 20 21 21 21
17 17 16 16 15 15 15 15 14 14 15 15 15 15 15 15 15 15 15 15 15 15 15 14 14 14 14 13 13 13 14 15 15 15 15 16 16 17 18 19 20 20 20
15 16 16 15 14 14 14 15 14 14 15 15 16 15 15 15 15 15 14 14 14 14 13 12 12 12 12 12 12 12 13 13 13 14 15 16 16 16 17 18 19 19 20
14 14 14 13 13 14 14 14 14 14 14 15 15 15 15 15 15 15 14 13 13 13 12 12 12 12 12 12 11 11 12 12 12 13 13 14 15 16 17 17 18 18 18
13 14 13 13 13 13 14 14 13 14 14 15 15 15 15 15 15 15 15 14 14 13 13 13 12 12 12 12 12 12 11 12 12 13 14 14 15 15 15 16 17 17 17
12 12 12 12 12 13 13 13 13 13 14 14 14 15 15 16 16 16 15 15 14 13 13 13 12 12 12 12 11 11 11 12 12 13 14 14 14 15 16 16 17 17 17
10 10 11 11 12 12 12 13 13 13 13 13 14 15 15 16 16 16 15 15 14 13 13 13 13 13 13 12 11 11 10 11 11 13 13 13 14 14 15 16 17 17 18
9 10 10 11 11 12 12 13 13 13 13 13 14 15 15 16 16 16 15 14 14 14 14 13 13 13 13 12 11 11 11 12 12 12 13 13 13 14 15 15 16 17 17
9 9 9 10 11 11 12 13 13 13 14 14 15 15 16 17 17 16 15 15 14 14 14 14 14 14 13 13 13 13 13 13 13 14 14 15 15 15 16 17 17 18 18
8 8 8 10 11 11 12 13 14 14 15 15 15 16 16 17 17 16 15 15 14 14 14 15 14 14 13 14 14 14 14 14 14 14 15 15 16 17 17 18 19 20 21
7 8 8 9 10 11 12 13 14 15 15 16 16 16 17 17 17 17 16 15 15 15 15 15 15 15 15 15 15 15 15 15 15 15 15 16 17 17 18 19 20 21 22
7 7 8 9 10 11 12 13 15 16 16 16 17 18 18 18 18 18 17 17 16 16 16 16 16 16 16 16 16 16 16 17 16 17 18 18 19 19 20 21 21 22 23
6 7 8 9 10 12 13 14 15 16 17 17 18 19 19 18 18 18 18 17 18 18 18 18 18 18 18 17 17 18 18 18 19 19 20 20 21 22 22 22 23 24 25
6 7 9 10 11 12 13 14 15 16 17 18 19 19 19 19 19 19 19 19 19 19 19 19 20 20 19 19 19 19 19 19 19 20 21 21 22 23 24 25 26 27 27
7 8 9 10 11 12 14 15 16 17 17 19 19 20 20 20 20 20 20 21 21 21 21 22 22 21 21 21 22 21 21 21 21 22 22 22 23 24 24 26 27 27 28
8 8 9 10 11 13 14 15 16 17 18 19 20 21 21 21 21 21 22 23 23 23 24 24 24 24 24 24 24 23 23 23 24 24 23 24 25 26 26 27 28 29 29
8 9 9 10 12 13 15 16 17 18 19 20 21 21 22 22 23 23 23 24 25 26 26 26 26 26 26 26 26 26 26 25 25 26 26 26 27 27 27 28 29 30 31
8 9 10 11 12 14 16 17 18 19 20 21 22 22 23 24 25 25 26 26 27 28 28 27 27 28 28 27 27 27 27 27 27 28 28 28 28 29 29 30 30 32 32
9 10 11 12 14 16 17 18 20 21 22 23 24 24 25 26 27 28 28 28 29 29 29 29 30 30 29 29 29 28 28 27 28 28 29 29 29 30 30 31 31 32 32
10 11 12 13 15 17 18 19 21 22 23 24 25 26 27 28 29 30 30 30 30 30 30 30 30 30 30 29 29 29 29 29 29 29 29 30 30 30 31 31 32 32 33
11 12 13 15 16 17 19 20 22 24 25 26 27 27 28 29 30 31 31 31 31 31 31 31 31 31 30 29 29 29 29 29 29 29 29 30 30 30 31 31 31 32 33

GEFSGL_500_meanwind_174.txt.gz
Wind_Speed
21 21 22 23 23 24 24 24 24 24 24 24 24 24 23 23 22 21 21 21 21 21 21 21 22 22 22 22 23 24 25 26 26 27 28 29 29 28 30 30 30 30 30
21 22 23 24 23 23 24 24 24 24 23 23 23 23 23 23 22 22 21 21 21 21 21 21 21 22 22 21 21 22 24 24 25 26 27 27 27 27 27 28 28 30 31
21 22 22 23 22 22 23 23 23 22 21 21 22 22 22 22 22 22 20 20 20 20 20 20 20 20 20 20 21 21 22 23 24 24 24 25 25 25 25 26 27 28 29
21 21 21 21 21 21 21 21 21 20 20 20 20 20 20 20 20 20 20 19 19 18 18 18 19 18 19 20 20 20 21 22 22 22 22 22 22 23 24 25 25 25 26
19 19 20 20 20 20 20 20 20 19 19 18 18 18 19 19 19 19 19 19 19 18 18 18 18 18 18 19 19 20 20 21 20 20 21 21 21 22 22 23 24 24 25
18 18 18 19 19 18 18 18 18 17 17 17 17 18 18 19 19 19 19 19 18 18 18 18 18 18 18 19 19 19 19 18 18 18 18 19 19 20 20 22 22 23 23
18 17 17 18 17 17 18 17 16 16 17 17 17 18 18 19 19 19 19 19 19 18 18 17 17 17 17 17 17 16 16 16 16 16 17 18 18 19 19 20 21 22 22
17 17 17 17 16 16 16 16 15 16 16 16 17 18 18 18 19 19 19 19 19 18 18 17 17 17 16 16 16 16 16 16 17 17 17 18 18 19 19 19 20 20 21
16 15 15 15 15 14 15 15 15 16 16 16 17 17 18 19 19 19 19 19 19 19 18 17 17 17 17 16 17 16 16 17 17 17 17 17 18 19 20 21 20 20 20
15 14 14 14 14 14 14 14 15 16 16 16 16 17 18 19 19 19 20 20 20 19 18 18 18 18 18 17 17 17 17 17 17 18 18 18 18 18 18 19 20 20 20
13 13 13 13 13 14 13 14 15 15 16 16 17 18 18 19 19 19 20 20 20 19 18 18 19 19 19 19 18 18 18 18 18 18 18 18 18 18 18 19 20 20 21
12 12 12 13 13 13 13 13 14 15 16 16 18 18 19 19 18 19 20 20 20 19 18 18 19 19 19 19 18 18 17 17 17 17 17 17 17 18 19 20 20 21 21
11 11 12 12 12 12 12 13 14 16 16 17 18 18 18 18 19 19 21 21 21 20 19 19 19 19 19 19 19 18 17 16 16 16 16 17 18 18 19 19 20 22 23
10 11 11 11 11 12 13 14 14 15 17 18 18 18 18 19 20 21 21 21 21 20 20 20 20 20 20 19 19 19 18 17 17 17 18 18 18 18 19 20 21 21 22
9 10 10 10 11 12 13 13 14 16 18 18 18 19 20 20 21 21 21 21 22 21 22 22 21 21 21 20 20 20 20 20 20 20 20 19 19 20 20 20 21 21 21
9 9 9 10 11 12 13 14 15 16 18 19 20 20 21 21 21 21 22 23 23 24 23 23 23 23 22 21 21 21 21 21 21 21 21 22 21 21 21 21 22 22 23
8 9 9 10 11 12 14 15 16 17 19 20 21 21 21 22 22 22 23 24 25 25 25 25 24 23 23 22 22 22 22 22 22 22 22 22 22 22 22 22 22 23 23
8 9 9 10 11 13 14 16 16 17 19 20 21 22 23 23 23 24 24 25 26 26 26 26 26 25 24 24 23 23 24 24 24 24 23 23 24 24 24 24 24 24 24
8 8 9 10 12 14 15 16 17 18 19 20 22 23 24 24 25 25 26 26 26 27 27 27 27 27 25 25 25 25 25 25 24 24 24 24 24 24 24 25 25 25 25
7 9 10 11 12 14 16 16 18 19 20 21 22 23 25 26 26 27 27 27 27 28 28 28 28 28 27 26 25 25 26 25 25 25 25 25 24 25 25 26 27 28 28
8 9 10 11 13 14 16 17 18 20 21 22 23 24 26 27 27 28 28 28 29 29 29 29 29 29 28 27 27 26 26 26 26 26 25 25 26 26 26 27 28 29 29
8 9 11 13 14 15 16 18 19 21 22 24 24 26 27 28 28 29 29 30 30 31 30 30 30 29 29 29 29 28 28 27 27 27 27 27 27 27 28 28 28 29 29
8 10 12 13 14 16 17 19 20 21 23 24 26 27 28 28 29 30 31 31 32 32 32 32 32 31 31 30 30 30 29 28 28 27 27 27 27 27 27 27 27 27 27
9 11 12 14 15 16 18 19 21 23 24 26 27 28 29 30 30 31 32 32 32 33 33 33 33 33 32 32 31 31 30 29 28 28 28 27 27 26 26 27 27 27 27
9 11 12 14 16 17 19 20 22 24 25 27 28 30 30 31 32 33 33 33 34 34 34 34 34 34 34 33 32 32 32 31 30 29 28 27 27 26 26 26 26 27 27
10 11 13 15 16 18 20 21 23 24 26 28 30 31 32 32 33 34 34 35 36 36 35 35 35 35 35 34 34 33 32 31 30 29 28 27 27 26 26 26 26 26 27

GEFSGL_500_meanwind_180.txt.gz
Wind_Speed
19 20 20 21 21 21 22 22 22 22 22 22 22 23 23 22 22 23 23 23 23 23 22 21 20 20 20 20 20 20 20 22 22 22 22 22 23 24 26 28 29 31 32
18 18 19 19 19 20 20 21 21 21 21 22 22 21 21 21 22 22 22 22 22 22 22 21 20 19 19 18 18 18 19 20 22 23 23 23 23 24 25 26 27 29 30
17 17 18 18 18 19 19 20 20 19 20 21 20 19 19 19 20 21 21 21 21 21 20 19 18 18 18 18 17 17 18 19 21 21 22 23 23 23 24 25 26 27 29
16 17 17 18 18 18 18 19 19 19 19 19 19 18 18 19 19 19 20 20 20 20 19 18 17 17 17 17 17 18 18 18 18 19 21 22 22 22 22 24 25 26 27
16 16 17 17 17 17 18 18 18 18 18 19 18 17 18 18 18 19 19 19 19 19 19 18 17 17 18 17 18 19 20 20 20 21 21 21 22 22 21 22 23 24 25
15 16 16 16 16 17 17 17 17 17 17 17 17 17 18 18 18 19 20 20 20 20 19 19 18 18 17 17 18 19 19 20 20 20 20 20 20 20 20 20 21 22 23
14 15 15 16 16 16 16 16 17 17 16 16 16 17 18 18 19 19 20 20 20 20 20 19 18 18 18 17 18 18 18 19 19 19 19 19 19 19 20 20 20 21 21
13 14 15 15 15 15 15 15 15 16 16 16 17 18 18 18 19 19 19 19 20 20 19 19 19 19 19 18 18 18 19 19 19 19 19 18 18 18 19 19 19 19 20
12 13 14 14 14 14 14 14 14 15 16 16 17 17 18 18 18 18 18 19 19 19 20 20 20 20 19 19 19 19 19 19 19 19 18 18 18 18 18 18 18 19 19
12 12 13 13 13 13 13 14 14 16 17 17 17 17 17 17 18 18 19 20 20 20 20 21 21 21 20 19 19 19 19 19 19 19 18 19 18 18 18 19 19 20 20
11 11 12 12 12 12 13 13 14 16 16 16 17 17 17 18 19 19 20 21 21 21 21 22 22 21 21 21 20 20 19 19 19 19 19 18 18 19 19 20 20 21 21
10 10 11 12 12 12 13 13 14 15 15 16 17 17 18 19 19 19 20 21 21 21 22 22 22 22 22 22 21 20 20 19 18 18 19 19 20 21 21 21 22 23 23
9 10 11 11 11 11 12 13 13 14 15 16 17 17 18 18 18 19 20 21 22 22 23 22 23 23 23 23 22 21 20 19 18 18 19 20 21 21 21 22 23 23 24
7 9 10 10 11 11 12 12 13 14 15 16 17 17 18 19 19 20 21 22 22 23 23 23 23 23 23 23 23 22 21 20 20 19 20 21 22 22 22 23 24 24 25
6 8 9 10 11 11 11 12 13 14 15 17 18 18 19 19 20 22 23 23 23 23 24 24 24 24 24 24 24 23 23 22 22 22 22 22 23 23 24 24 24 24 25
6 7 8 9 11 11 11 12 13 15 16 18 19 19 20 21 22 23 23 24 24 25 25 25 25 25 25 24 24 24 23 23 23 24 24 23 23 23 24 24 24 24 25
6 7 8 9 10 11 11 12 14 15 17 19 20 20 21 22 23 23 23 24 25 26 26 26 26 26 25 25 24 24 23 23 24 24 24 24 24 24 24 24 25 25 26
5 7 8 9 10 11 12 13 15 16 17 19 20 21 22 23 24 24 24 25 26 27 27 27 27 27 26 25 25 25 24 24 24 24 23 23 23 24 24 24 25 25 25
5 6 8 9 10 11 13 14 15 17 18 20 21 22 23 24 25 26 26 26 27 27 27 27 27 27 27 26 26 26 25 25 25 25 25 24 24 23 23 23 24 24 25
5 6 8 9 10 12 13 15 16 18 19 20 22 23 25 25 26 27 27 27 27 27 28 28 28 28 28 28 28 28 27 26 25 25 25 25 24 23 22 22 22 23 24
5 6 8 10 11 13 14 15 17 18 20 21 23 25 25 26 27 28 27 27 28 28 28 29 29 30 31 31 30 29 28 27 26 26 25 24 23 22 22 22 22 22 23
5 6 8 10 11 13 14 16 17 19 20 22 24 26 26 27 27 28 29 28 28 28 29 30 31 31 32 31 30 30 28 27 26 25 24 24 23 23 23 23 23 23 23
5 6 8 10 12 13 15 16 18 19 21 22 25 26 27 28 28 29 29 29 29 29 30 31 32 32 32 31 31 30 29 27 26 25 24 24 23 22 22 22 22 22 22
5 6 8 9 11 13 15 17 18 20 22 24 26 27 28 29 29 29 29 30 30 30 31 33 33 33 32 31 31 31 29 28 26 25 25 24 23 22 22 21 21 21 20
6 7 8 10 11 13 15 17 19 21 23 24 26 28 29 30 29 29 30 31 31 32 32 33 33 32 32 32 31 30 30 29 27 26 25 23 23 22 22 21 21 20 20
6 7 8 10 12 14 16 17 19 22 24 25 27 28 29 30 30 30 31 32 32 33 33 34 34 34 33 33 32 31 30 29 28 27 25 24 23 23 22 22 21 21 21

GEFSGL_500_meanwind_186.txt.gz
Wind_Speed
22 21 21 21 21 21 21 21 21 21 20 20 21 22 23 24 24 25 25 24 24 25 25 25 24 24 23 22 22 21 21 21 21 21 22 22 23 23 24 25 25 26 26
20 20 19 19 19 20 20 20 21 21 20 21 21 22 23 24 24 25 25 24 24 24 24 24 24 23 22 22 21 21 20 20 20 20 21 22 23 23 24 25 25 26 26
20 20 19 19 19 19 19 19 20 19 19 20 22 22 23 24 24 24 24 24 24 24 24 24 23 22 21 21 21 20 20 20 21 21 21 21 21 22 23 24 24 25 25
19 19 18 18 19 18 18 19 19 19 20 21 21 22 23 23 23 23 23 23 23 23 22 22 22 22 22 21 21 20 20 21 21 21 21 21 21 22 22 23 23 23 23
18 18 18 18 18 17 18 18 19 19 20 21 21 22 22 22 23 23 22 22 22 22 22 22 22 23 23 23 22 21 21 21 21 21 21 21 21 22 22 23 23 23 24
18 17 17 17 16 16 17 18 18 19 20 21 21 21 22 22 22 22 22 22 22 23 23 23 22 23 23 23 23 22 22 22 21 21 21 21 21 21 22 22 23 23 24
17 17 16 16 15 15 16 16 17 18 20 20 21 21 21 22 22 21 22 22 23 23 23 23 23 23 24 23 23 23 23 22 22 21 21 21 21 21 22 22 21 22 22
16 16 15 14 14 15 15 16 17 18 19 19 20 21 21 21 22 22 22 23 23 23 23 23 24 24 25 25 24 23 23 23 23 22 22 22 22 23 22 22 21 21 22
15 13 13 12 13 14 15 15 16 18 18 18 20 21 21 21 22 22 23 23 23 24 24 24 25 25 25 25 24 22 22 22 23 23 23 23 23 22 22 21 22 22 21
13 11 10 11 12 14 14 15 16 16 17 18 19 20 21 21 21 22 23 23 24 25 25 25 25 25 25 24 24 23 23 22 23 23 23 23 22 22 22 22 22 22 22
11 9 9 10 11 12 13 14 15 16 16 17 18 19 20 21 21 22 23 24 25 25 25 25 26 26 25 25 24 23 23 23 22 22 22 22 22 22 22 23 23 22 22
8 7 7 9 11 11 12 13 15 15 16 17 18 19 20 20 21 22 24 25 25 24 25 26 26 26 25 25 24 23 23 22 22 22 22 22 22 22 23 23 23 23 23
5 5 7 9 10 11 12 13 14 15 16 17 18 19 20 21 21 22 24 25 25 25 25 25 25 26 26 25 24 23 23 23 23 23 22 21 21 21 22 22 23 24 24
5 5 6 8 9 10 12 13 14 15 16 17 18 19 20 21 22 24 25 25 25 26 26 26 26 26 26 25 25 25 25 24 23 23 22 22 22 22 22 23 24 25 26
5 6 7 8 9 10 12 13 14 16 17 18 19 20 21 22 24 25 26 26 26 26 26 26 26 26 27 27 26 26 26 25 24 23 23 23 23 24 24 24 24 25 26
5 5 7 8 9 10 11 13 15 16 17 19 20 21 22 23 25 26 27 27 26 26 27 27 27 27 27 27 27 27 26 26 25 25 24 24 23 23 23 23 24 24 24
5 5 7 9 9 10 11 13 15 16 17 18 20 21 23 24 26 26 27 27 27 28 28 28 28 28 28 28 28 28 28 28 27 26 25 24 24 23 23 23 23 23 23
4 5 7 9 10 11 12 14 15 17 18 19 20 22 23 25 26 27 27 27 28 28 29 29 29 29 29 29 29 29 29 29 28 27 26 24 23 22 21 22 22 22 22
4 5 7 9 10 11 13 15 16 18 19 20 21 23 24 26 27 27 27 28 28 29 29 30 30 30 30 30 30 29 29 29 29 27 25 23 22 22 22 21 21 21 21
4 5 7 9 11 12 13 15 17 19 20 21 23 24 26 27 28 28 27 28 29 29 30 30 30 31 31 31 30 30 29 29 28 27 25 23 22 22 21 21 21 20 20
4 6 8 9 11 12 13 15 17 19 21 22 24 26 27 28 28 28 28 29 30 30 31 31 31 31 31 31 31 31 30 29 28 27 25 24 23 22 21 21 21 20 20
4 6 8 9 11 12 14 15 17 19 21 23 25 27 28 29 29 29 29 30 31 32 32 32 32 32 32 31 32 31 31 30 29 28 26 24 24 23 22 21 21 21 20
4 6 8 10 11 12 14 15 17 19 21 23 25 27 28 29 30 30 30 31 31 32 32 32 33 33 33 33 32 32 31 30 29 28 27 25 24 23 22 22 21 21 20
5 6 8 10 11 12 13 15 18 20 22 24 25 27 28 29 30 31 31 32 32 33 33 34 34 34 34 34 33 32 31 31 30 28 27 26 25 24 23 22 21 21 20
4 6 8 10 11 12 14 16 18 20 22 23 25 26 28 29 30 31 32 32 33 34 35 35 35 35 35 35 35 33 32 32 31 30 28 27 26 25 24 23 22 22 21
4 6 8 10 11 13 14 16 18 20 22 24 25 27 28 29 30 31 32 33 34 35 35 36 36 36 36 36 36 34 33 32 31 30 29 28 26 25 24 23 23 22 22

GEFSGL_500_meanwind_192.txt.gz
Wind_Speed
22 22 22 21 20 18 18 17 18 18 17 18 19 20 21 21 21 21 22 22 22 23 23 23 23 24 24 24 24 23 23 22 22 21 21 22 22 23 24 26 27 28 29
22 21 20 19 18 17 17 17 18 18 18 18 18 19 20 20 21 21 22 22 23 23 23 23 23 23 23 23 23 22 22 22 22 21 21 21 22 23 24 25 26 27 28
21 19 18 18 16 16 16 17 17 18 17 18 18 18 19 20 20 21 21 22 23 23 24 24 23 24 24 24 23 23 23 23 23 23 22 22 23 23 24 25 27 27 28
19 17 17 16 15 15 16 16 16 16 16 18 18 18 19 20 20 20 21 22 23 23 24 24 24 24 24 24 24 24 24 23 23 23 23 23 23 24 24 24 25 27 28
16 16 15 15 15 15 15 15 15 15 16 16 16 17 18 19 20 20 21 22 22 23 23 24 24 24 25 25 25 24 24 23 23 23 23 23 23 24 24 25 25 26 27
14 14 14 15 15 15 15 14 14 14 14 15 16 16 17 18 19 20 21 21 22 23 24 24 24 24 25 25 25 24 24 24 24 24 24 24 24 24 24 24 24 25 26
13 13 14 14 14 14 13 13 13 13 13 14 15 15 17 18 19 20 21 22 23 23 24 24 24 25 25 24 24 24 24 24 24 24 24 24 24 23 23 24 25 25 25
13 13 12 12 13 12 12 12 12 12 13 14 14 15 16 18 19 20 21 22 23 24 24 24 24 25 25 24 24 24 24 23 23 24 24 23 23 24 24 24 25 25 25
13 12 11 12 12 11 11 10 11 12 12 13 13 15 16 18 19 20 21 21 23 24 24 24 24 24 24 24 24 24 23 23 22 22 23 23 23 23 23 23 24 24 25
12 11 11 11 11 10 10 9 10 11 12 13 14 15 17 18 19 20 21 22 23 24 24 24 24 25 25 24 24 23 23 22 22 21 21 21 22 22 22 22 23 23 23
12 11 10 9 9 9 9 9 9 10 11 13 14 15 17 18 19 20 21 22 24 25 25 25 25 26 25 24 24 23 22 22 21 20 20 20 21 22 22 23 23 23 23
11 10 9 8 7 7 8 8 9 11 11 12 14 16 17 18 19 21 22 23 24 25 25 25 26 26 24 24 23 23 23 22 22 21 21 21 21 22 22 23 24 24 24
9 9 8 7 6 6 6 7 9 11 12 13 15 16 17 19 20 21 22 24 25 25 25 26 26 25 25 24 23 23 24 23 23 23 23 23 22 22 22 22 22 23 24
9 8 7 6 6 7 7 8 9 11 13 13 15 15 17 19 21 23 24 25 25 26 26 26 26 25 25 24 24 24 24 24 23 23 22 22 21 21 21 22 22 22 23
8 7 7 6 6 7 8 8 10 12 13 14 16 17 18 20 22 24 25 25 26 26 26 26 26 26 25 25 25 25 25 25 24 23 23 22 21 21 21 21 21 21 22
7 6 7 6 6 7 9 10 11 12 14 15 16 17 19 21 23 25 25 26 26 27 27 27 26 26 26 26 26 26 25 25 25 23 22 22 21 21 21 21 21 21 22
6 6 6 6 7 8 9 10 12 13 14 15 17 18 20 22 24 25 26 26 27 27 27 27 27 27 27 27 27 27 26 25 24 23 22 22 22 21 21 21 21 21 21
4 5 5 6 7 8 10 11 13 14 15 16 17 19 21 23 24 25 26 26 26 27 28 28 29 29 29 29 29 28 26 25 24 24 24 23 22 21 21 20 20 20 20
4 4 5 5 6 8 9 11 12 14 15 17 18 19 21 23 25 25 26 26 27 28 29 29 30 30 31 30 30 28 27 26 25 25 24 24 22 21 21 20 20 20 19
3 3 4 4 5 8 9 10 12 14 15 17 18 20 22 24 25 26 26 27 28 29 30 30 31 32 32 32 30 29 28 27 26 25 24 24 23 22 21 20 19 19 20
2 3 3 4 6 7 9 11 12 14 15 17 19 21 23 24 25 26 27 28 29 30 31 31 32 33 33 33 31 30 29 28 27 26 24 24 23 23 21 20 20 20 20
1 2 2 4 6 7 9 11 12 14 16 18 19 21 23 24 26 27 28 29 30 31 32 32 33 34 34 33 32 31 30 28 28 27 25 25 24 23 22 21 21 21 21
1 1 2 4 6 7 9 10 12 14 16 18 19 21 22 24 26 27 28 29 31 32 33 33 34 35 35 34 33 32 31 29 28 27 26 25 24 23 23 22 21 21 20
1 1 3 4 6 7 9 11 13 14 16 18 20 21 23 25 26 27 28 29 31 32 33 34 35 36 36 36 35 34 32 30 29 28 27 26 26 25 24 23 22 22 21
1 1 3 4 5 7 9 11 13 15 16 18 20 22 24 25 26 27 28 30 31 32 33 35 36 36 37 36 35 34 33 32 31 30 29 28 27 26 25 24 24 23 23
2 1 2 4 5 7 10 11 13 15 17 19 20 22 24 25 26 27 28 29 30 32 33 34 35 36 37 37 36 35 34 33 32 32 31 30 28 27 26 25 25 25 24

GEFSGL_500_meanwind_198.txt.gz
Wind_Speed
25 23 21 19 18 18 17 17 18 18 18 18 18 19 20 21 22 22 22 22 23 24 24 24 24 25 25 25 25 26 27 26 26 25 25 25 25 26 26 27 28 29 30
23 20 18 16 16 16 16 16 17 17 17 18 18 18 19 20 21 20 20 21 22 23 23 23 24 24 23 24 25 25 25 26 25 24 23 23 24 25 26 27 28 29 30
21 18 16 14 15 16 16 16 16 16 16 17 17 18 18 19 19 19 20 20 21 22 22 22 23 23 23 24 24 24 24 24 24 24 24 24 24 25 26 27 27 27 28
19 17 15 14 15 15 16 17 17 16 16 17 17 17 17 18 19 19 20 21 22 22 22 23 24 24 24 23 23 23 24 24 24 24 24 25 25 25 25 26 26 27 28
17 16 15 15 15 15 15 16 16 15 16 15 15 15 16 17 18 19 20 20 21 23 23 23 24 24 24 24 23 24 24 24 25 24 24 24 25 25 25 26 26 27 28
16 16 15 14 15 15 15 15 15 15 14 14 14 14 15 17 17 19 20 20 21 22 22 23 23 23 24 24 24 25 25 25 25 25 24 24 24 24 24 24 25 25 25
16 15 15 15 14 14 15 14 14 14 14 14 14 14 16 17 17 19 19 20 21 22 23 22 22 23 23 24 25 25 25 25 25 25 25 24 24 23 23 23 23 24 25
15 16 15 14 14 14 14 14 13 14 14 13 13 14 15 16 18 18 19 21 22 22 22 22 22 23 23 24 25 25 25 25 26 26 25 23 23 23 23 23 23 23 24
15 16 15 15 15 14 14 13 13 14 14 13 13 14 15 16 18 18 19 20 21 22 22 22 23 24 24 24 25 25 25 26 25 25 24 23 23 23 23 23 23 24 23
16 16 15 15 15 15 14 13 14 14 13 12 12 13 14 16 17 18 19 20 21 21 22 23 24 24 24 25 25 25 24 24 24 23 23 23 22 22 22 22 23 23 24
15 15 15 15 14 14 13 12 12 13 13 12 13 13 15 16 17 18 20 20 21 22 23 24 24 25 25 25 26 25 25 24 24 23 23 23 22 21 21 21 22 23 23
14 14 14 15 14 13 12 12 12 12 12 12 13 14 15 17 18 19 20 21 22 23 24 24 24 25 26 26 26 26 25 24 24 24 23 23 22 21 22 22 22 23 23
13 13 13 13 13 12 12 12 12 11 12 13 13 14 15 17 19 21 21 22 23 24 24 24 25 26 26 27 27 26 26 25 25 25 24 23 22 22 22 21 22 22 23
13 12 12 12 11 11 11 12 12 13 13 14 14 15 16 18 19 21 22 23 24 24 25 25 25 26 27 27 28 27 26 26 26 25 25 23 22 21 20 20 21 21 21
12 12 12 11 11 11 12 12 12 12 13 14 15 15 17 18 20 22 23 24 25 25 25 25 26 26 27 27 28 27 27 27 26 25 24 23 22 21 21 21 21 22 21
11 11 11 11 11 11 11 12 12 12 13 14 15 16 18 19 21 22 23 24 25 26 26 26 26 27 28 28 28 28 28 27 27 26 25 24 23 22 21 22 22 21 20
10 10 10 10 11 11 11 11 12 12 13 14 16 17 19 20 22 23 25 26 26 26 27 27 27 28 29 30 29 28 28 28 28 27 26 25 24 22 22 22 22 21 20
8 8 9 9 10 10 11 11 11 12 13 14 15 17 19 21 23 24 25 26 27 27 27 28 28 30 30 30 30 29 29 29 29 28 27 25 23 23 23 22 22 21 20
6 7 8 8 9 9 9 10 11 12 13 14 16 17 20 22 24 25 26 26 27 28 28 29 29 30 31 31 31 30 30 29 29 28 27 26 24 23 23 23 22 21 19
6 6 7 8 8 8 8 9 10 12 14 15 16 18 21 23 24 25 26 27 27 28 29 30 31 31 32 32 32 32 31 30 29 28 27 26 25 24 24 23 22 21 19
5 6 6 6 6 6 7 8 10 12 13 15 17 19 21 23 24 25 26 27 28 29 30 31 32 33 33 33 33 33 32 31 30 29 27 26 25 25 24 23 22 21 20
5 5 5 5 5 6 7 8 10 12 14 15 17 19 22 23 24 25 26 28 29 30 31 32 33 34 35 35 34 34 33 32 31 30 28 27 26 25 25 24 24 23 22
5 4 3 3 4 5 6 8 9 11 14 15 17 19 21 23 24 26 27 28 29 30 31 32 33 34 35 35 35 35 34 33 32 30 29 28 28 27 26 25 25 24 23
4 3 3 3 3 5 6 8 9 11 13 15 17 19 20 22 24 26 27 28 29 30 32 33 34 34 35 35 36 36 35 34 33 32 30 30 29 29 28 27 26 26 25
4 3 3 2 3 4 5 7 9 11 13 15 17 18 20 22 24 25 27 29 30 31 32 33 34 35 36 35 35 35 35 35 35 34 32 31 30 30 29 28 27 26 26
4 3 2 2 3 4 5 7 9 11 13 15 17 18 20 22 24 25 27 29 30 31 32 33 35 36 36 35 35 35 36 36 36 35 34 32 31 30 29 29 28 27 26